2016 Cux-Wetter.de -Die Nutzung der Wetterdaten nur mit ausdrcklicher Genehmigung
Wetterdaten: Montag, 11.07.2016
Datum Zeit Temp. A. Feuchte A. Luftdruck Regen Wind Richtung Richtung Sonnenschein Solar Taupunkt Windchill Windben
11.07.2016 00:00 18,6 C 91 % 1005,2 hPa 0,0 l/m 6,5 km/h (2 Bft) SW 226 0 min 0 W/m 17,1 C 18,6 C 11,3 km/h (2 Bft)
11.07.2016 00:03 18,6 C 91 % 1005,3 hPa 0,0 l/m 7,7 km/h (2 Bft) SW 234 0 min 0 W/m 17,1 C 18,0 C 11,3 km/h (2 Bft)
11.07.2016 00:06 18,6 C 91 % 1005,3 hPa 0,0 l/m 7,8 km/h (2 Bft) W-SW 240 0 min 0 W/m 17,1 C 18,0 C 12,9 km/h (3 Bft)
11.07.2016 00:09 18,5 C 91 % 1005,2 hPa 0,0 l/m 7,9 km/h (2 Bft) S-SW 193 0 min 0 W/m 17,0 C 17,8 C 12,9 km/h (3 Bft)
11.07.2016 00:12 18,5 C 91 % 1005,2 hPa 0,0 l/m 6,3 km/h (2 Bft) S-SW 198 0 min 0 W/m 17,0 C 18,5 C 9,7 km/h (2 Bft)
11.07.2016 00:15 18,5 C 91 % 1005,1 hPa 0,0 l/m 6,0 km/h (2 Bft) SW 224 0 min 0 W/m 17,0 C 18,5 C 9,7 km/h (2 Bft)
11.07.2016 00:18 18,5 C 91 % 1005,2 hPa 0,0 l/m 5,0 km/h (1 Bft) S-SW 204 0 min 0 W/m 17,0 C 18,5 C 9,7 km/h (2 Bft)
11.07.2016 00:21 18,4 C 91 % 1005,1 hPa 0,0 l/m 6,4 km/h (2 Bft) S-SW 196 0 min 0 W/m 16,9 C 18,4 C 9,7 km/h (2 Bft)
11.07.2016 00:24 18,4 C 91 % 1005,0 hPa 0,0 l/m 4,0 km/h (1 Bft) SW 215 0 min 0 W/m 16,9 C 18,4 C 6,4 km/h (2 Bft)
11.07.2016 00:27 18,4 C 91 % 1005,1 hPa 0,0 l/m 3,5 km/h (1 Bft) S 186 0 min 0 W/m 16,9 C 18,4 C 8,0 km/h (2 Bft)
11.07.2016 00:30 18,4 C 91 % 1005,0 hPa 0,0 l/m 2,9 km/h (1 Bft) S 182 0 min 0 W/m 16,9 C 18,4 C 4,8 km/h (1 Bft)
11.07.2016 00:33 18,3 C 91 % 1004,9 hPa 0,0 l/m 3,2 km/h (1 Bft) S 189 0 min 0 W/m 16,8 C 18,3 C 6,4 km/h (2 Bft)
11.07.2016 00:36 18,3 C 91 % 1005,0 hPa 0,0 l/m 4,2 km/h (1 Bft) S-SW 207 0 min 0 W/m 16,8 C 18,3 C 6,4 km/h (2 Bft)
11.07.2016 00:39 18,3 C 92 % 1005,0 hPa 0,0 l/m 5,0 km/h (1 Bft) SW 221 0 min 0 W/m 17,0 C 18,3 C 9,7 km/h (2 Bft)
11.07.2016 00:42 18,2 C 92 % 1005,0 hPa 0,0 l/m 4,1 km/h (1 Bft) SW 214 0 min 0 W/m 16,9 C 18,2 C 6,4 km/h (2 Bft)
11.07.2016 00:45 18,2 C 92 % 1005,0 hPa 0,0 l/m 4,7 km/h (1 Bft) S-SW 213 0 min 0 W/m 16,9 C 18,2 C 9,7 km/h (2 Bft)
11.07.2016 00:48 18,3 C 92 % 1004,9 hPa 0,0 l/m 5,5 km/h (2 Bft) S-SW 210 0 min 0 W/m 17,0 C 18,3 C 9,7 km/h (2 Bft)
11.07.2016 00:51 18,3 C 92 % 1004,9 hPa 0,0 l/m 6,4 km/h (2 Bft) SW 227 0 min 0 W/m 17,0 C 18,3 C 11,3 km/h (2 Bft)
11.07.2016 00:54 18,3 C 92 % 1004,8 hPa 0,0 l/m 5,6 km/h (2 Bft) SW 218 0 min 0 W/m 17,0 C 18,3 C 12,9 km/h (3 Bft)
11.07.2016 00:57 18,3 C 92 % 1004,7 hPa 0,0 l/m 5,1 km/h (1 Bft) SW 224 0 min 0 W/m 17,0 C 18,3 C 9,7 km/h (2 Bft)
11.07.2016 01:00 18,3 C 92 % 1004,7 hPa 0,0 l/m 3,7 km/h (1 Bft) S 186 0 min 0 W/m 17,0 C 18,3 C 6,4 km/h (2 Bft)
11.07.2016 01:03 18,3 C 92 % 1004,7 hPa 0,0 l/m 4,3 km/h (1 Bft) SW 217 0 min 0 W/m 17,0 C 18,3 C 9,7 km/h (2 Bft)
11.07.2016 01:06 18,2 C 92 % 1004,6 hPa 0,0 l/m 4,0 km/h (1 Bft) S-SW 204 0 min 0 W/m 16,9 C 18,2 C 8,0 km/h (2 Bft)
11.07.2016 01:09 18,2 C 92 % 1004,7 hPa 0,0 l/m 2,8 km/h (1 Bft) S-SW 192 0 min 0 W/m 16,9 C 18,2 C 4,8 km/h (1 Bft)
11.07.2016 01:12 18,2 C 92 % 1004,6 hPa 0,0 l/m 1,6 km/h (1 Bft) S-SW 192 0 min 0 W/m 16,9 C 18,2 C 3,2 km/h (1 Bft)
11.07.2016 01:15 18,2 C 92 % 1004,6 hPa 0,0 l/m 2,2 km/h (1 Bft) S-SW 196 0 min 0 W/m 16,9 C 18,2 C 6,4 km/h (2 Bft)
11.07.2016 01:18 18,1 C 92 % 1004,6 hPa 0,0 l/m 2,8 km/h (1 Bft) S-SW 195 0 min 0 W/m 16,8 C 18,1 C 4,8 km/h (1 Bft)
11.07.2016 01:21 18,1 C 93 % 1004,6 hPa 0,0 l/m 2,7 km/h (1 Bft) S 173 0 min 0 W/m 16,9 C 18,1 C 4,8 km/h (1 Bft)
11.07.2016 01:24 18,0 C 93 % 1004,5 hPa 0,0 l/m 1,9 km/h (1 Bft) S 182 0 min 0 W/m 16,8 C 18,0 C 4,8 km/h (1 Bft)
11.07.2016 01:27 18,0 C 93 % 1004,5 hPa 0,0 l/m 4,0 km/h (1 Bft) SW 218 0 min 0 W/m 16,8 C 18,0 C 8,0 km/h (2 Bft)
11.07.2016 01:30 18,0 C 93 % 1004,5 hPa 0,0 l/m 6,5 km/h (2 Bft) SW 214 0 min 0 W/m 16,8 C 18,0 C 9,7 km/h (2 Bft)
11.07.2016 01:33 18,0 C 93 % 1004,5 hPa 0,0 l/m 5,7 km/h (2 Bft) W-SW 240 0 min 0 W/m 16,8 C 18,0 C 8,0 km/h (2 Bft)
11.07.2016 01:36 18,1 C 93 % 1004,4 hPa 0,0 l/m 5,2 km/h (1 Bft) SW 223 0 min 0 W/m 16,9 C 18,1 C 8,0 km/h (2 Bft)
11.07.2016 01:39 18,1 C 93 % 1004,4 hPa 0,0 l/m 7,8 km/h (2 Bft) SW 222 0 min 0 W/m 16,9 C 17,4 C 14,5 km/h (3 Bft)
11.07.2016 01:42 18,1 C 92 % 1004,5 hPa 0,0 l/m 6,9 km/h (2 Bft) SW 215 0 min 0 W/m 16,8 C 17,9 C 11,3 km/h (2 Bft)
11.07.2016 01:45 18,1 C 92 % 1004,5 hPa 0,0 l/m 5,7 km/h (2 Bft) S-SW 209 0 min 0 W/m 16,8 C 18,1 C 9,7 km/h (2 Bft)
11.07.2016 01:48 18,2 C 92 % 1004,6 hPa 0,0 l/m 6,2 km/h (2 Bft) SW 223 0 min 0 W/m 16,9 C 18,2 C 8,0 km/h (2 Bft)
11.07.2016 01:51 18,2 C 92 % 1004,7 hPa 0,0 l/m 5,9 km/h (2 Bft) SW 225 0 min 0 W/m 16,9 C 18,2 C 9,7 km/h (2 Bft)
11.07.2016 01:54 18,2 C 92 % 1004,6 hPa 0,0 l/m 5,7 km/h (2 Bft) S-SW 204 0 min 0 W/m 16,9 C 18,2 C 8,0 km/h (2 Bft)
11.07.2016 01:57 18,2 C 92 % 1004,5 hPa 0,0 l/m 6,9 km/h (2 Bft) SW 222 0 min 0 W/m 16,9 C 18,0 C 12,9 km/h (3 Bft)
11.07.2016 02:00 18,2 C 92 % 1004,6 hPa 0,0 l/m 7,2 km/h (2 Bft) W-SW 245 0 min 0 W/m 16,9 C 17,8 C 12,9 km/h (3 Bft)
11.07.2016 02:03 18,2 C 92 % 1004,7 hPa 0,0 l/m 8,3 km/h (2 Bft) S-SW 204 0 min 0 W/m 16,9 C 17,3 C 11,3 km/h (2 Bft)
11.07.2016 02:06 18,2 C 92 % 1004,6 hPa 0,0 l/m 8,9 km/h (2 Bft) SW 236 0 min 0 W/m 16,9 C 17,1 C 14,5 km/h (3 Bft)
11.07.2016 02:09 18,2 C 92 % 1004,7 hPa 0,0 l/m 8,9 km/h (2 Bft) S-SW 207 0 min 0 W/m 16,9 C 17,1 C 17,7 km/h (3 Bft)
11.07.2016 02:12 18,2 C 92 % 1004,7 hPa 0,0 l/m 7,8 km/h (2 Bft) S-SW 205 0 min 0 W/m 16,9 C 17,6 C 12,9 km/h (3 Bft)
11.07.2016 02:15 18,2 C 91 % 1004,7 hPa 0,0 l/m 9,3 km/h (2 Bft) S-SW 198 0 min 0 W/m 16,7 C 16,9 C 14,5 km/h (3 Bft)
11.07.2016 02:18 18,2 C 91 % 1004,8 hPa 0,0 l/m 11,3 km/h (2 Bft) W 273 0 min 0 W/m 16,7 C 16,2 C 17,7 km/h (3 Bft)
11.07.2016 02:21 18,2 C 90 % 1004,7 hPa 0,0 l/m 10,8 km/h (2 Bft) SW 231 0 min 0 W/m 16,5 C 16,4 C 20,9 km/h (4 Bft)
11.07.2016 02:24 18,3 C 89 % 1004,6 hPa 0,0 l/m 9,0 km/h (2 Bft) SW 217 0 min 0 W/m 16,5 C 17,1 C 17,7 km/h (3 Bft)
11.07.2016 02:27 18,4 C 88 % 1004,6 hPa 0,0 l/m 9,4 km/h (2 Bft) SW 235 0 min 0 W/m 16,4 C 17,1 C 19,3 km/h (3 Bft)
11.07.2016 02:30 18,5 C 88 % 1004,6 hPa 0,0 l/m 5,7 km/h (2 Bft) SW 229 0 min 0 W/m 16,5 C 18,5 C 9,7 km/h (2 Bft)
11.07.2016 02:33 18,6 C 88 % 1004,7 hPa 0,0 l/m 7,4 km/h (2 Bft) SW 228 0 min 0 W/m 16,6 C 18,1 C 14,5 km/h (3 Bft)
11.07.2016 02:36 18,6 C 87 % 1004,5 hPa 0,0 l/m 7,4 km/h (2 Bft) W 273 0 min 0 W/m 16,4 C 18,1 C 14,5 km/h (3 Bft)
11.07.2016 02:39 18,6 C 87 % 1004,7 hPa 0,0 l/m 8,7 km/h (2 Bft) W 259 0 min 0 W/m 16,4 C 17,6 C 16,1 km/h (3 Bft)
11.07.2016 02:42 18,6 C 86 % 1004,6 hPa 0,0 l/m 9,3 km/h (2 Bft) SW 236 0 min 0 W/m 16,2 C 17,4 C 19,3 km/h (3 Bft)
11.07.2016 02:45 18,7 C 86 % 1004,6 hPa 0,0 l/m 8,8 km/h (2 Bft) W-SW 245 0 min 0 W/m 16,3 C 17,7 C 16,1 km/h (3 Bft)
11.07.2016 02:48 18,7 C 86 % 1004,6 hPa 0,0 l/m 9,3 km/h (2 Bft) SW 224 0 min 0 W/m 16,3 C 17,5 C 17,7 km/h (3 Bft)
11.07.2016 02:51 18,6 C 86 % 1004,6 hPa 0,0 l/m 8,3 km/h (2 Bft) W 272 0 min 0 W/m 16,2 C 17,8 C 17,7 km/h (3 Bft)
11.07.2016 02:54 18,6 C 86 % 1004,5 hPa 0,0 l/m 8,7 km/h (2 Bft) SW 214 0 min 0 W/m 16,2 C 17,6 C 16,1 km/h (3 Bft)
11.07.2016 02:57 18,6 C 86 % 1004,5 hPa 0,0 l/m 8,2 km/h (2 Bft) S-SW 213 0 min 0 W/m 16,2 C 17,8 C 12,9 km/h (3 Bft)
11.07.2016 03:00 18,6 C 86 % 1004,4 hPa 0,0 l/m 6,8 km/h (2 Bft) SW 220 0 min 0 W/m 16,2 C 18,4 C 12,9 km/h (3 Bft)
11.07.2016 03:03 18,5 C 87 % 1004,2 hPa 0,0 l/m 4,9 km/h (1 Bft) S-SO 163 0 min 0 W/m 16,3 C 18,5 C 11,3 km/h (2 Bft)
11.07.2016 03:06 18,4 C 87 % 1004,3 hPa 0,0 l/m 8,2 km/h (2 Bft) SW 223 0 min 0 W/m 16,2 C 17,6 C 11,3 km/h (2 Bft)
11.07.2016 03:09 18,4 C 88 % 1004,2 hPa 0,0 l/m 5,4 km/h (2 Bft) S-SW 205 0 min 0 W/m 16,4 C 18,4 C 9,7 km/h (2 Bft)
11.07.2016 03:12 18,3 C 88 % 1004,2 hPa 0,0 l/m 6,8 km/h (2 Bft) SW 216 0 min 0 W/m 16,3 C 18,1 C 9,7 km/h (2 Bft)
11.07.2016 03:15 18,3 C 88 % 1004,2 hPa 0,0 l/m 6,3 km/h (2 Bft) SW 217 0 min 0 W/m 16,3 C 18,3 C 9,7 km/h (2 Bft)
11.07.2016 03:18 18,2 C 88 % 1004,2 hPa 0,0 l/m 5,0 km/h (1 Bft) SW 219 0 min 0 W/m 16,2 C 18,2 C 8,0 km/h (2 Bft)
11.07.2016 03:21 18,2 C 88 % 1004,2 hPa 0,0 l/m 5,2 km/h (1 Bft) S-SW 205 0 min 0 W/m 16,2 C 18,2 C 9,7 km/h (2 Bft)
11.07.2016 03:24 18,2 C 89 % 1004,1 hPa 0,0 l/m 4,8 km/h (1 Bft) SW 223 0 min 0 W/m 16,4 C 18,2 C 8,0 km/h (2 Bft)
11.07.2016 03:27 18,1 C 89 % 1004,1 hPa 0,0 l/m 5,0 km/h (1 Bft) SW 229 0 min 0 W/m 16,3 C 18,1 C 8,0 km/h (2 Bft)
11.07.2016 03:30 18,0 C 89 % 1004,1 hPa 0,0 l/m 4,4 km/h (1 Bft) SW 217 0 min 0 W/m 16,2 C 18,0 C 8,0 km/h (2 Bft)
11.07.2016 03:33 17,9 C 90 % 1004,0 hPa 0,0 l/m 4,1 km/h (1 Bft) SW 230 0 min 0 W/m 16,2 C 17,9 C 8,0 km/h (2 Bft)
11.07.2016 03:36 17,9 C 90 % 1004,1 hPa 0,0 l/m 6,3 km/h (2 Bft) SW 232 0 min 0 W/m 16,2 C 17,9 C 9,7 km/h (2 Bft)
11.07.2016 03:39 17,9 C 90 % 1004,1 hPa 0,0 l/m 5,8 km/h (2 Bft) SW 214 0 min 0 W/m 16,2 C 17,9 C 8,0 km/h (2 Bft)
11.07.2016 03:42 17,8 C 90 % 1004,2 hPa 0,0 l/m 6,1 km/h (2 Bft) S-SW 205 0 min 0 W/m 16,1 C 17,8 C 11,3 km/h (2 Bft)
11.07.2016 03:45 17,8 C 90 % 1004,1 hPa 0,0 l/m 5,9 km/h (2 Bft) SW 221 0 min 0 W/m 16,1 C 17,8 C 11,3 km/h (2 Bft)
11.07.2016 03:48 17,8 C 91 % 1004,1 hPa 0,0 l/m 7,2 km/h (2 Bft) W-SW 245 0 min 0 W/m 16,3 C 17,4 C 14,5 km/h (3 Bft)
11.07.2016 03:51 17,8 C 90 % 1004,2 hPa 0,0 l/m 7,9 km/h (2 Bft) S-SW 209 0 min 0 W/m 16,1 C 17,1 C 12,9 km/h (3 Bft)
11.07.2016 03:54 17,8 C 90 % 1004,1 hPa 0,0 l/m 5,9 km/h (2 Bft) SW 221 0 min 0 W/m 16,1 C 17,8 C 9,7 km/h (2 Bft)
11.07.2016 03:57 17,8 C 90 % 1004,1 hPa 0,0 l/m 6,0 km/h (2 Bft) SW 222 0 min 0 W/m 16,1 C 17,8 C 9,7 km/h (2 Bft)
11.07.2016 04:00 17,8 C 90 % 1004,1 hPa 0,0 l/m 6,3 km/h (2 Bft) SW 219 0 min 0 W/m 16,1 C 17,8 C 11,3 km/h (2 Bft)
11.07.2016 04:03 17,8 C 90 % 1004,1 hPa 0,0 l/m 7,6 km/h (2 Bft) S-SW 211 0 min 0 W/m 16,1 C 17,2 C 11,3 km/h (2 Bft)
11.07.2016 04:06 17,8 C 90 % 1004,0 hPa 0,0 l/m 6,9 km/h (2 Bft) W-SW 247 0 min 0 W/m 16,1 C 17,6 C 9,7 km/h (2 Bft)
11.07.2016 04:09 17,8 C 90 % 1004,0 hPa 0,0 l/m 6,8 km/h (2 Bft) SW 226 0 min 0 W/m 16,1 C 17,6 C 9,7 km/h (2 Bft)
11.07.2016 04:12 17,8 C 90 % 1004,1 hPa 0,0 l/m 7,4 km/h (2 Bft) SW 219 0 min 0 W/m 16,1 C 17,3 C 11,3 km/h (2 Bft)
11.07.2016 04:15 17,8 C 90 % 1004,0 hPa 0,0 l/m 9,2 km/h (2 Bft) W-SW 239 0 min 0 W/m 16,1 C 16,5 C 14,5 km/h (3 Bft)
11.07.2016 04:18 17,9 C 90 % 1004,0 hPa 0,0 l/m 11,0 km/h (2 Bft) SW 231 0 min 0 W/m 16,2 C 16,0 C 14,5 km/h (3 Bft)
11.07.2016 04:21 17,9 C 90 % 1004,0 hPa 0,0 l/m 9,5 km/h (2 Bft) SW 229 0 min 0 W/m 16,2 C 16,5 C 19,3 km/h (3 Bft)
11.07.2016 04:24 17,9 C 90 % 1004,0 hPa 0,0 l/m 12,1 km/h (2 Bft) SW 225 0 min 0 W/m 16,2 C 15,6 C 19,3 km/h (3 Bft)
11.07.2016 04:27 17,9 C 90 % 1003,9 hPa 0,0 l/m 10,6 km/h (2 Bft) SW 231 0 min 0 W/m 16,2 C 16,1 C 17,7 km/h (3 Bft)
11.07.2016 04:30 17,9 C 90 % 1003,8 hPa 0,0 l/m 8,1 km/h (2 Bft) SW 215 0 min 0 W/m 16,2 C 17,1 C 11,3 km/h (2 Bft)
11.07.2016 04:33 17,9 C 90 % 1003,9 hPa 0,0 l/m 8,6 km/h (2 Bft) SW 232 0 min 0 W/m 16,2 C 16,9 C 14,5 km/h (3 Bft)
11.07.2016 04:36 17,9 C 89 % 1003,9 hPa 0,0 l/m 10,4 km/h (2 Bft) SW 232 0 min 0 W/m 16,1 C 16,2 C 19,3 km/h (3 Bft)
11.07.2016 04:39 17,9 C 89 % 1003,8 hPa 0,0 l/m 10,3 km/h (2 Bft) SW 221 0 min 0 W/m 16,1 C 16,2 C 16,1 km/h (3 Bft)
11.07.2016 04:42 17,9 C 89 % 1003,9 hPa 0,0 l/m 8,3 km/h (2 Bft) S-SW 213 0 min 0 W/m 16,1 C 17,0 C 12,9 km/h (3 Bft)
11.07.2016 04:45 17,9 C 89 % 1003,9 hPa 0,0 l/m 9,6 km/h (2 Bft) SW 224 0 min 0 W/m 16,1 C 16,5 C 12,9 km/h (3 Bft)
11.07.2016 04:48 17,9 C 89 % 1003,9 hPa 0,0 l/m 8,5 km/h (2 Bft) SW 214 0 min 0 W/m 16,1 C 16,9 C 12,9 km/h (3 Bft)
11.07.2016 04:51 17,9 C 89 % 1003,8 hPa 0,0 l/m 7,0 km/h (2 Bft) W-SW 238 0 min 0 W/m 16,1 C 17,6 C 14,5 km/h (3 Bft)
11.07.2016 04:54 17,9 C 89 % 1003,9 hPa 0,0 l/m 8,3 km/h (2 Bft) S-SW 200 0 min 0 W/m 16,1 C 17,0 C 12,9 km/h (3 Bft)
11.07.2016 04:57 17,9 C 89 % 1003,9 hPa 0,0 l/m 8,6 km/h (2 Bft) S-SW 211 0 min 0 W/m 16,1 C 16,9 C 12,9 km/h (3 Bft)
11.07.2016 05:00 17,8 C 89 % 1003,8 hPa 0,0 l/m 6,9 km/h (2 Bft) S-SW 213 0 min 0 W/m 16,0 C 17,6 C 9,7 km/h (2 Bft)
11.07.2016 05:03 17,8 C 89 % 1003,8 hPa 0,0 l/m 8,6 km/h (2 Bft) SW 221 0 min 0 W/m 16,0 C 16,8 C 12,9 km/h (3 Bft)
11.07.2016 05:06 17,8 C 89 % 1003,9 hPa 0,0 l/m 8,6 km/h (2 Bft) SW 234 0 min 0 W/m 16,0 C 16,8 C 12,9 km/h (3 Bft)
11.07.2016 05:09 17,8 C 89 % 1003,9 hPa 0,0 l/m 8,3 km/h (2 Bft) S-SW 203 0 min 0 W/m 16,0 C 16,9 C 12,9 km/h (3 Bft)
11.07.2016 05:12 17,8 C 89 % 1003,8 hPa 0,0 l/m 8,1 km/h (2 Bft) S 183 0 min 0 W/m 16,0 C 17,0 C 11,3 km/h (2 Bft)
11.07.2016 05:15 17,8 C 89 % 1003,9 hPa 0,0 l/m 8,4 km/h (2 Bft) SW 220 0 min 0 W/m 16,0 C 16,9 C 12,9 km/h (3 Bft)
11.07.2016 05:18 17,8 C 89 % 1003,9 hPa 0,0 l/m 9,1 km/h (2 Bft) SW 229 0 min 0 W/m 16,0 C 16,6 C 16,1 km/h (3 Bft)
11.07.2016 05:21 17,7 C 89 % 1003,9 hPa 0,0 l/m 11,4 km/h (2 Bft) SW 219 0 min 0 W/m 15,9 C 15,6 C 16,1 km/h (3 Bft)
11.07.2016 05:24 17,7 C 89 % 1003,8 hPa 0,0 l/m 10,3 km/h (2 Bft) SW 234 0 min 0 W/m 15,9 C 16,0 C 14,5 km/h (3 Bft)
11.07.2016 05:27 17,7 C 89 % 1003,8 hPa 0,0 l/m 8,7 km/h (2 Bft) SW 233 0 min 5 W/m 15,9 C 16,6 C 12,9 km/h (3 Bft)
11.07.2016 05:30 17,7 C 89 % 1003,8 hPa 0,0 l/m 8,9 km/h (2 Bft) SW 217 0 min 7 W/m 15,9 C 16,5 C 14,5 km/h (3 Bft)
11.07.2016 05:33 17,7 C 89 % 1003,7 hPa 0,0 l/m 9,5 km/h (2 Bft) S-SW 202 0 min 7 W/m 15,9 C 16,3 C 12,9 km/h (3 Bft)
11.07.2016 05:36 17,8 C 89 % 1003,8 hPa 0,0 l/m 8,8 km/h (2 Bft) S-SW 194 0 min 7 W/m 16,0 C 16,7 C 12,9 km/h (3 Bft)
11.07.2016 05:39 17,8 C 89 % 1003,8 hPa 0,0 l/m 7,6 km/h (2 Bft) SW 223 0 min 11 W/m 16,0 C 17,2 C 14,5 km/h (3 Bft)
11.07.2016 05:42 17,8 C 90 % 1003,9 hPa 0,0 l/m 8,6 km/h (2 Bft) SW 220 0 min 11 W/m 16,1 C 16,8 C 14,5 km/h (3 Bft)
11.07.2016 05:45 17,8 C 90 % 1004,0 hPa 0,0 l/m 7,9 km/h (2 Bft) SW 221 0 min 7 W/m 16,1 C 17,1 C 11,3 km/h (2 Bft)
11.07.2016 05:48 17,8 C 90 % 1004,0 hPa 0,0 l/m 10,3 km/h (2 Bft) SW 225 0 min 9 W/m 16,1 C 16,1 C 16,1 km/h (3 Bft)
11.07.2016 05:51 17,8 C 90 % 1004,0 hPa 0,0 l/m 9,3 km/h (2 Bft) SW 231 0 min 9 W/m 16,1 C 16,5 C 17,7 km/h (3 Bft)
11.07.2016 05:54 17,8 C 90 % 1004,0 hPa 0,0 l/m 11,9 km/h (2 Bft) W-SW 239 0 min 9 W/m 16,1 C 15,5 C 17,7 km/h (3 Bft)
11.07.2016 05:57 17,9 C 90 % 1004,1 hPa 0,0 l/m 14,1 km/h (3 Bft) W-SW 255 0 min 14 W/m 16,2 C 15,0 C 19,3 km/h (3 Bft)
11.07.2016 06:00 17,9 C 90 % 1004,1 hPa 0,0 l/m 13,6 km/h (3 Bft) S-SW 197 0 min 16 W/m 16,2 C 15,1 C 24,1 km/h (4 Bft)
11.07.2016 06:03 17,9 C 89 % 1003,9 hPa 0,0 l/m 14,7 km/h (3 Bft) SW 218 0 min 19 W/m 16,1 C 14,8 C 22,5 km/h (4 Bft)
11.07.2016 06:06 17,9 C 89 % 1004,0 hPa 0,0 l/m 16,5 km/h (3 Bft) SW 230 0 min 18 W/m 16,1 C 14,3 C 27,4 km/h (5 Bft)
11.07.2016 06:09 17,9 C 88 % 1003,9 hPa 0,0 l/m 15,2 km/h (3 Bft) W-SW 242 0 min 18 W/m 15,9 C 14,7 C 22,5 km/h (4 Bft)
11.07.2016 06:12 17,9 C 88 % 1003,8 hPa 0,0 l/m 14,4 km/h (3 Bft) SW 220 0 min 19 W/m 15,9 C 14,9 C 20,9 km/h (4 Bft)
11.07.2016 06:15 17,8 C 88 % 1003,9 hPa 0,0 l/m 13,6 km/h (3 Bft) SW 227 0 min 25 W/m 15,8 C 15,0 C 17,7 km/h (3 Bft)
11.07.2016 06:18 17,8 C 88 % 1003,9 hPa 0,0 l/m 14,6 km/h (3 Bft) W-SW 250 0 min 28 W/m 15,8 C 14,7 C 22,5 km/h (4 Bft)
11.07.2016 06:21 17,8 C 88 % 1003,9 hPa 0,0 l/m 14,6 km/h (3 Bft) SW 221 0 min 30 W/m 15,8 C 14,7 C 24,1 km/h (4 Bft)
11.07.2016 06:24 17,8 C 87 % 1003,9 hPa 0,0 l/m 14,8 km/h (3 Bft) SW 215 0 min 28 W/m 15,6 C 14,6 C 27,4 km/h (5 Bft)
11.07.2016 06:27 17,9 C 87 % 1003,9 hPa 0,0 l/m 15,0 km/h (3 Bft) S-SW 205 0 min 25 W/m 15,7 C 14,7 C 24,1 km/h (4 Bft)
11.07.2016 06:30 17,9 C 87 % 1004,0 hPa 0,0 l/m 16,2 km/h (3 Bft) S-SW 200 0 min 25 W/m 15,7 C 14,4 C 22,5 km/h (4 Bft)
11.07.2016 06:33 17,8 C 87 % 1004,0 hPa 0,0 l/m 16,2 km/h (3 Bft) W 265 0 min 28 W/m 15,6 C 14,3 C 25,7 km/h (4 Bft)
11.07.2016 06:36 17,8 C 87 % 1004,0 hPa 0,0 l/m 17,2 km/h (3 Bft) SW 232 0 min 32 W/m 15,6 C 14,0 C 32,2 km/h (5 Bft)
11.07.2016 06:39 17,8 C 87 % 1004,1 hPa 0,0 l/m 16,7 km/h (3 Bft) SW 234 0 min 35 W/m 15,6 C 14,1 C 24,1 km/h (4 Bft)
11.07.2016 06:42 17,8 C 87 % 1004,1 hPa 0,0 l/m 18,4 km/h (3 Bft) SW 220 0 min 40 W/m 15,6 C 13,7 C 25,7 km/h (4 Bft)
11.07.2016 06:45 17,8 C 87 % 1004,1 hPa 0,0 l/m 14,5 km/h (3 Bft) SW 228 0 min 40 W/m 15,6 C 14,7 C 22,5 km/h (4 Bft)
11.07.2016 06:48 17,8 C 87 % 1004,1 hPa 0,0 l/m 15,6 km/h (3 Bft) S-SW 206 0 min 37 W/m 15,6 C 14,4 C 25,7 km/h (4 Bft)
11.07.2016 06:51 17,8 C 87 % 1004,1 hPa 0,0 l/m 13,9 km/h (3 Bft) SW 228 0 min 40 W/m 15,6 C 14,9 C 17,7 km/h (3 Bft)
11.07.2016 06:54 17,8 C 87 % 1004,2 hPa 0,0 l/m 19,1 km/h (3 Bft) W-SW 240 0 min 39 W/m 15,6 C 13,6 C 27,4 km/h (5 Bft)
11.07.2016 06:57 17,8 C 86 % 1004,2 hPa 0,0 l/m 17,6 km/h (3 Bft) SW 223 0 min 35 W/m 15,4 C 13,9 C 29,0 km/h (5 Bft)
11.07.2016 07:00 17,8 C 86 % 1004,2 hPa 0,0 l/m 15,5 km/h (3 Bft) SW 227 0 min 25 W/m 15,4 C 14,4 C 25,7 km/h (4 Bft)
11.07.2016 07:03 17,8 C 86 % 1004,2 hPa 0,0 l/m 17,5 km/h (3 Bft) W-SW 241 0 min 25 W/m 15,4 C 13,9 C 27,4 km/h (5 Bft)
11.07.2016 07:06 17,8 C 86 % 1004,2 hPa 0,0 l/m 18,3 km/h (3 Bft) S-SW 192 0 min 23 W/m 15,4 C 13,7 C 27,4 km/h (5 Bft)
11.07.2016 07:09 17,7 C 86 % 1004,2 hPa 0,0 l/m 15,8 km/h (3 Bft) W-SW 249 0 min 21 W/m 15,3 C 14,2 C 24,1 km/h (4 Bft)
11.07.2016 07:12 17,7 C 86 % 1004,1 hPa 0,0 l/m 16,1 km/h (3 Bft) W-SW 238 0 min 33 W/m 15,3 C 14,2 C 25,7 km/h (4 Bft)
11.07.2016 07:15 17,7 C 86 % 1004,2 hPa 0,0 l/m 16,5 km/h (3 Bft) SW 227 0 min 39 W/m 15,3 C 14,1 C 24,1 km/h (4 Bft)
11.07.2016 07:18 17,8 C 86 % 1004,2 hPa 0,0 l/m 17,5 km/h (3 Bft) W-SW 246 0 min 40 W/m 15,4 C 13,9 C 24,1 km/h (4 Bft)
11.07.2016 07:21 17,7 C 86 % 1004,3 hPa 0,0 l/m 15,4 km/h (3 Bft) W 261 0 min 51 W/m 15,3 C 14,4 C 24,1 km/h (4 Bft)
11.07.2016 07:24 17,8 C 86 % 1004,2 hPa 0,0 l/m 18,2 km/h (3 Bft) W-SW 248 0 min 47 W/m 15,4 C 13,8 C 32,2 km/h (5 Bft)
11.07.2016 07:27 17,8 C 86 % 1004,2 hPa 0,0 l/m 15,2 km/h (3 Bft) W 263 0 min 51 W/m 15,4 C 14,5 C 24,1 km/h (4 Bft)
11.07.2016 07:30 17,8 C 86 % 1004,3 hPa 0,0 l/m 17,8 km/h (3 Bft) S-SW 213 0 min 47 W/m 15,4 C 13,9 C 27,4 km/h (5 Bft)
11.07.2016 07:33 17,8 C 86 % 1004,2 hPa 0,0 l/m 16,2 km/h (3 Bft) SW 221 0 min 40 W/m 15,4 C 14,3 C 25,7 km/h (4 Bft)
11.07.2016 07:36 17,7 C 86 % 1004,3 hPa 0,0 l/m 17,6 km/h (3 Bft) SW 221 0 min 40 W/m 15,3 C 13,8 C 25,7 km/h (4 Bft)
11.07.2016 07:39 17,7 C 86 % 1004,2 hPa 0,0 l/m 17,5 km/h (3 Bft) SW 231 0 min 35 W/m 15,3 C 13,8 C 25,7 km/h (4 Bft)
11.07.2016 07:42 17,7 C 86 % 1004,3 hPa 0,0 l/m 17,8 km/h (3 Bft) S-SW 207 0 min 56 W/m 15,3 C 13,7 C 27,4 km/h (5 Bft)
11.07.2016 07:45 17,7 C 86 % 1004,3 hPa 0,0 l/m 20,1 km/h (4 Bft) SW 236 0 min 42 W/m 15,3 C 13,2 C 33,8 km/h (5 Bft)
11.07.2016 07:48 17,8 C 86 % 1004,3 hPa 0,0 l/m 18,1 km/h (3 Bft) S-SW 210 0 min 49 W/m 15,4 C 13,8 C 25,7 km/h (4 Bft)
11.07.2016 07:51 17,8 C 86 % 1004,3 hPa 0,0 l/m 20,5 km/h (4 Bft) SW 216 0 min 63 W/m 15,4 C 13,3 C 30,6 km/h (5 Bft)
11.07.2016 07:54 17,8 C 86 % 1004,3 hPa 0,0 l/m 15,5 km/h (3 Bft) W-SW 240 0 min 54 W/m 15,4 C 14,4 C 22,5 km/h (4 Bft)
11.07.2016 07:57 17,9 C 86 % 1004,3 hPa 0,0 l/m 16,7 km/h (3 Bft) W-SW 237 0 min 58 W/m 15,5 C 14,3 C 32,2 km/h (5 Bft)
11.07.2016 08:00 17,9 C 85 % 1004,4 hPa 0,0 l/m 18,1 km/h (3 Bft) SW 216 0 min 47 W/m 15,3 C 13,9 C 38,6 km/h (6 Bft)
11.07.2016 08:03 17,9 C 85 % 1004,4 hPa 0,0 l/m 17,7 km/h (3 Bft) S-SW 208 0 min 44 W/m 15,3 C 14,0 C 24,1 km/h (4 Bft)
11.07.2016 08:06 17,9 C 85 % 1004,4 hPa 0,0 l/m 18,7 km/h (3 Bft) S-SW 194 0 min 60 W/m 15,3 C 13,8 C 30,6 km/h (5 Bft)
11.07.2016 08:09 17,8 C 85 % 1004,3 hPa 0,0 l/m 20,5 km/h (4 Bft) SW 221 0 min 46 W/m 15,2 C 13,3 C 37,0 km/h (5 Bft)
11.07.2016 08:12 17,9 C 85 % 1004,3 hPa 0,0 l/m 22,7 km/h (4 Bft) SW 227 0 min 62 W/m 15,3 C 13,0 C 32,2 km/h (5 Bft)
11.07.2016 08:15 17,9 C 85 % 1004,3 hPa 0,0 l/m 20,2 km/h (4 Bft) W 270 0 min 69 W/m 15,3 C 13,5 C 32,2 km/h (5 Bft)
11.07.2016 08:18 17,9 C 85 % 1004,3 hPa 0,0 l/m 18,7 km/h (3 Bft) W-SW 241 0 min 72 W/m 15,3 C 13,8 C 27,4 km/h (5 Bft)
11.07.2016 08:21 18,0 C 85 % 1004,3 hPa 0,0 l/m 19,6 km/h (3 Bft) S-SW 202 0 min 90 W/m 15,4 C 13,7 C 29,0 km/h (5 Bft)
11.07.2016 08:24 18,0 C 85 % 1004,4 hPa 0,0 l/m 17,9 km/h (3 Bft) SW 221 0 min 100 W/m 15,4 C 14,1 C 30,6 km/h (5 Bft)
11.07.2016 08:27 18,0 C 85 % 1004,3 hPa 0,0 l/m 18,2 km/h (3 Bft) W-SW 238 0 min 98 W/m 15,4 C 14,0 C 25,7 km/h (4 Bft)
11.07.2016 08:30 17,9 C 85 % 1004,3 hPa 0,0 l/m 18,6 km/h (3 Bft) W-SW 243 0 min 109 W/m 15,3 C 13,8 C 27,4 km/h (5 Bft)
11.07.2016 08:33 18,0 C 85 % 1004,4 hPa 0,0 l/m 16,0 km/h (3 Bft) W 277 0 min 123 W/m 15,4 C 14,6 C 24,1 km/h (4 Bft)
11.07.2016 08:36 18,1 C 85 % 1004,4 hPa 0,0 l/m 19,3 km/h (3 Bft) W-SW 241 0 min 137 W/m 15,5 C 13,9 C 33,8 km/h (5 Bft)
11.07.2016 08:39 18,1 C 84 % 1004,3 hPa 0,0 l/m 20,0 km/h (4 Bft) W-SW 241 0 min 135 W/m 15,4 C 13,8 C 25,7 km/h (4 Bft)
11.07.2016 08:42 18,1 C 84 % 1004,4 hPa 0,0 l/m 15,3 km/h (3 Bft) W-SW 249 0 min 81 W/m 15,4 C 14,9 C 22,5 km/h (4 Bft)
11.07.2016 08:45 18,1 C 85 % 1004,4 hPa 0,0 l/m 16,3 km/h (3 Bft) W-SW 251 0 min 88 W/m 15,5 C 14,6 C 22,5 km/h (4 Bft)
11.07.2016 08:48 17,9 C 84 % 1004,5 hPa 0,0 l/m 21,4 km/h (4 Bft) SW 217 0 min 86 W/m 15,2 C 13,2 C 33,8 km/h (5 Bft)
11.07.2016 08:51 17,9 C 84 % 1004,5 hPa 0,0 l/m 14,5 km/h (3 Bft) W-SW 240 0 min 77 W/m 15,2 C 14,8 C 22,5 km/h (4 Bft)
11.07.2016 08:54 17,9 C 84 % 1004,5 hPa 0,0 l/m 16,0 km/h (3 Bft) SW 220 0 min 83 W/m 15,2 C 14,4 C 24,1 km/h (4 Bft)
11.07.2016 08:57 17,9 C 84 % 1004,5 hPa 0,0 l/m 17,2 km/h (3 Bft) SW 223 0 min 77 W/m 15,2 C 14,1 C 29,0 km/h (5 Bft)
11.07.2016 09:00 17,8 C 85 % 1004,6 hPa 0,0 l/m 15,6 km/h (3 Bft) SW 215 0 min 54 W/m 15,2 C 14,4 C 22,5 km/h (4 Bft)
11.07.2016 09:03 17,8 C 85 % 1004,6 hPa 0,0 l/m 14,1 km/h (3 Bft) SW 227 0 min 83 W/m 15,2 C 14,8 C 22,5 km/h (4 Bft)
11.07.2016 09:06 17,8 C 85 % 1004,6 hPa 0,0 l/m 15,6 km/h (3 Bft) W-SW 244 0 min 135 W/m 15,2 C 14,4 C 24,1 km/h (4 Bft)
11.07.2016 09:09 17,9 C 85 % 1004,6 hPa 0,0 l/m 18,3 km/h (3 Bft) SW 219 0 min 81 W/m 15,3 C 13,9 C 25,7 km/h (4 Bft)
11.07.2016 09:12 17,9 C 85 % 1004,6 hPa 0,0 l/m 11,5 km/h (2 Bft) S-SW 212 0 min 95 W/m 15,3 C 15,8 C 16,1 km/h (3 Bft)
11.07.2016 09:15 17,9 C 85 % 1004,6 hPa 0,0 l/m 18,3 km/h (3 Bft) SW 233 0 min 102 W/m 15,3 C 13,9 C 32,2 km/h (5 Bft)
11.07.2016 09:18 17,9 C 84 % 1004,5 hPa 0,0 l/m 20,4 km/h (4 Bft) SW 219 0 min 105 W/m 15,2 C 13,4 C 29,0 km/h (5 Bft)
11.07.2016 09:21 17,9 C 84 % 1004,6 hPa 0,0 l/m 16,4 km/h (3 Bft) W-SW 247 0 min 127 W/m 15,2 C 14,3 C 24,1 km/h (4 Bft)
11.07.2016 09:24 18,0 C 85 % 1004,6 hPa 0,0 l/m 15,0 km/h (3 Bft) SW 219 0 min 111 W/m 15,4 C 14,8 C 24,1 km/h (4 Bft)
11.07.2016 09:27 18,1 C 84 % 1004,7 hPa 0,0 l/m 19,1 km/h (3 Bft) S-SW 203 0 min 169 W/m 15,4 C 13,9 C 29,0 km/h (5 Bft)
11.07.2016 09:30 18,1 C 84 % 1004,7 hPa 0,0 l/m 17,1 km/h (3 Bft) SW 224 0 min 176 W/m 15,4 C 14,4 C 27,4 km/h (5 Bft)
11.07.2016 09:33 18,2 C 83 % 1004,7 hPa 0,0 l/m 18,7 km/h (3 Bft) S-SW 208 0 min 167 W/m 15,3 C 14,2 C 30,6 km/h (5 Bft)
11.07.2016 09:36 18,3 C 82 % 1004,7 hPa 0,0 l/m 18,5 km/h (3 Bft) SW 220 0 min 158 W/m 15,2 C 14,3 C 30,6 km/h (5 Bft)
11.07.2016 09:39 18,3 C 82 % 1004,7 hPa 0,0 l/m 19,0 km/h (3 Bft) SW 228 0 min 151 W/m 15,2 C 14,2 C 25,7 km/h (4 Bft)
11.07.2016 09:42 18,4 C 82 % 1004,7 hPa 0,0 l/m 19,3 km/h (3 Bft) W-SW 250 0 min 142 W/m 15,3 C 14,3 C 27,4 km/h (5 Bft)
11.07.2016 09:45 18,4 C 82 % 1004,8 hPa 0,0 l/m 18,1 km/h (3 Bft) SW 228 0 min 151 W/m 15,3 C 14,5 C 32,2 km/h (5 Bft)
11.07.2016 09:48 18,4 C 80 % 1004,8 hPa 0,0 l/m 21,0 km/h (4 Bft) W 259 0 min 148 W/m 14,9 C 13,9 C 37,0 km/h (5 Bft)
11.07.2016 09:51 18,4 C 80 % 1004,8 hPa 0,0 l/m 21,9 km/h (4 Bft) W-SW 251 0 min 149 W/m 14,9 C 13,8 C 32,2 km/h (5 Bft)
11.07.2016 09:54 18,6 C 80 % 1004,9 hPa 0,0 l/m 17,4 km/h (3 Bft) SW 217 0 min 188 W/m 15,1 C 15,0 C 27,4 km/h (5 Bft)
11.07.2016 09:57 18,6 C 80 % 1004,9 hPa 0,0 l/m 17,0 km/h (3 Bft) W-SW 237 0 min 148 W/m 15,1 C 15,1 C 29,0 km/h (5 Bft)
11.07.2016 10:00 18,6 C 80 % 1004,9 hPa 0,0 l/m 19,4 km/h (3 Bft) W-SW 244 0 min 163 W/m 15,1 C 14,5 C 27,4 km/h (5 Bft)
11.07.2016 10:03 18,7 C 80 % 1004,8 hPa 0,0 l/m 18,2 km/h (3 Bft) SW 227 0 min 169 W/m 15,2 C 14,9 C 29,0 km/h (5 Bft)
11.07.2016 10:06 18,9 C 79 % 1004,9 hPa 0,0 l/m 16,1 km/h (3 Bft) S-SW 197 0 min 127 W/m 15,2 C 15,6 C 25,7 km/h (4 Bft)
11.07.2016 10:09 19,1 C 77 % 1004,9 hPa 0,0 l/m 14,4 km/h (3 Bft) W-SW 241 0 min 114 W/m 15,0 C 16,3 C 25,7 km/h (4 Bft)
11.07.2016 10:12 19,2 C 77 % 1004,9 hPa 0,0 l/m 18,9 km/h (3 Bft) W-SW 238 0 min 84 W/m 15,1 C 15,4 C 32,2 km/h (5 Bft)
11.07.2016 10:15 19,2 C 77 % 1004,9 hPa 0,0 l/m 18,9 km/h (3 Bft) SW 234 0 min 84 W/m 15,1 C 15,4 C 27,4 km/h (5 Bft)
11.07.2016 10:18 19,2 C 76 % 1004,9 hPa 0,0 l/m 21,7 km/h (4 Bft) S-SW 197 0 min 91 W/m 14,9 C 14,9 C 27,4 km/h (5 Bft)
11.07.2016 10:21 19,3 C 76 % 1004,9 hPa 0,0 l/m 19,0 km/h (3 Bft) SW 215 0 min 86 W/m 15,0 C 15,5 C 30,6 km/h (5 Bft)
11.07.2016 10:24 19,3 C 76 % 1004,9 hPa 0,0 l/m 19,7 km/h (3 Bft) SW 223 0 min 105 W/m 15,0 C 15,4 C 33,8 km/h (5 Bft)
11.07.2016 10:27 19,3 C 74 % 1004,9 hPa 0,0 l/m 23,2 km/h (4 Bft) W-SW 250 0 min 111 W/m 14,5 C 14,7 C 38,6 km/h (6 Bft)
11.07.2016 10:30 19,3 C 76 % 1005,0 hPa 0,0 l/m 19,7 km/h (3 Bft) SW 231 0 min 127 W/m 15,0 C 15,4 C 33,8 km/h (5 Bft)
11.07.2016 10:33 19,4 C 74 % 1004,9 hPa 0,0 l/m 18,5 km/h (3 Bft) SW 232 0 min 118 W/m 14,6 C 15,7 C 32,2 km/h (5 Bft)
11.07.2016 10:36 19,5 C 74 % 1005,0 hPa 0,0 l/m 20,1 km/h (4 Bft) W-SW 246 0 min 120 W/m 14,7 C 15,5 C 27,4 km/h (5 Bft)
11.07.2016 10:39 19,6 C 73 % 1005,0 hPa 0,0 l/m 17,6 km/h (3 Bft) S 188 0 min 109 W/m 14,6 C 16,2 C 32,2 km/h (5 Bft)
11.07.2016 10:42 19,7 C 73 % 1005,0 hPa 0,0 l/m 22,1 km/h (4 Bft) W-SW 244 0 min 127 W/m 14,7 C 15,4 C 30,6 km/h (5 Bft)
11.07.2016 10:45 19,7 C 74 % 1005,1 hPa 0,0 l/m 18,4 km/h (3 Bft) W 267 0 min 174 W/m 14,9 C 16,1 C 33,8 km/h (5 Bft)
11.07.2016 10:48 19,8 C 73 % 1005,0 hPa 0,0 l/m 17,8 km/h (3 Bft) S-SW 211 0 min 185 W/m 14,8 C 16,4 C 32,2 km/h (5 Bft)
11.07.2016 10:51 19,7 C 73 % 1005,0 hPa 0,0 l/m 19,1 km/h (3 Bft) SW 234 0 min 172 W/m 14,7 C 16,0 C 25,7 km/h (4 Bft)
11.07.2016 10:54 19,4 C 74 % 1005,0 hPa 0,0 l/m 22,2 km/h (4 Bft) W-SW 241 0 min 162 W/m 14,6 C 15,0 C 32,2 km/h (5 Bft)
11.07.2016 10:57 19,4 C 75 % 1005,1 hPa 0,0 l/m 16,2 km/h (3 Bft) W-SW 247 0 min 251 W/m 14,8 C 16,2 C 27,4 km/h (5 Bft)
11.07.2016 11:00 19,4 C 76 % 1005,0 hPa 0,0 l/m 13,2 km/h (3 Bft) W 277 0 min 276 W/m 15,1 C 17,0 C 19,3 km/h (3 Bft)
11.07.2016 11:03 19,6 C 74 % 1005,1 hPa 0,0 l/m 17,8 km/h (3 Bft) SW 217 3 min 592 W/m 14,8 C 16,1 C 32,2 km/h (5 Bft)
11.07.2016 11:06 19,7 C 74 % 1005,1 hPa 0,0 l/m 21,2 km/h (4 Bft) W-SW 248 0 min 200 W/m 14,9 C 15,6 C 32,2 km/h (5 Bft)
11.07.2016 11:09 19,6 C 73 % 1005,2 hPa 0,0 l/m 20,1 km/h (4 Bft) SW 229 0 min 246 W/m 14,6 C 15,7 C 32,2 km/h (5 Bft)
11.07.2016 11:12 19,4 C 73 % 1005,2 hPa 0,0 l/m 21,1 km/h (4 Bft) W-SW 244 0 min 241 W/m 14,4 C 15,2 C 35,4 km/h (5 Bft)
11.07.2016 11:15 19,4 C 73 % 1005,3 hPa 0,0 l/m 22,4 km/h (4 Bft) S-SO 167 0 min 185 W/m 14,4 C 15,0 C 33,8 km/h (5 Bft)
11.07.2016 11:18 19,3 C 72 % 1005,2 hPa 0,0 l/m 22,1 km/h (4 Bft) S-SW 211 0 min 207 W/m 14,1 C 14,9 C 30,6 km/h (5 Bft)
11.07.2016 11:21 19,2 C 72 % 1005,2 hPa 0,0 l/m 21,7 km/h (4 Bft) W-SW 238 0 min 330 W/m 14,0 C 14,9 C 32,2 km/h (5 Bft)
11.07.2016 11:24 19,3 C 73 % 1005,2 hPa 0,0 l/m 20,4 km/h (4 Bft) SW 231 0 min 302 W/m 14,3 C 15,2 C 27,4 km/h (5 Bft)
11.07.2016 11:27 19,6 C 72 % 1005,3 hPa 0,0 l/m 18,9 km/h (3 Bft) W-SW 242 0 min 357 W/m 14,4 C 15,9 C 30,6 km/h (5 Bft)
11.07.2016 11:30 19,7 C 71 % 1005,4 hPa 0,0 l/m 22,9 km/h (4 Bft) SW 229 0 min 244 W/m 14,3 C 15,3 C 33,8 km/h (5 Bft)
11.07.2016 11:33 19,6 C 71 % 1005,5 hPa 0,0 l/m 20,4 km/h (4 Bft) SW 235 0 min 225 W/m 14,2 C 15,6 C 35,4 km/h (5 Bft)
11.07.2016 11:36 19,6 C 71 % 1005,5 hPa 0,0 l/m 21,2 km/h (4 Bft) W 267 0 min 225 W/m 14,2 C 15,5 C 33,8 km/h (5 Bft)
11.07.2016 11:39 19,7 C 71 % 1005,4 hPa 0,0 l/m 21,5 km/h (4 Bft) SW 223 0 min 209 W/m 14,3 C 15,5 C 32,2 km/h (5 Bft)
11.07.2016 11:42 19,7 C 72 % 1005,5 hPa 0,0 l/m 17,5 km/h (3 Bft) SW 236 0 min 374 W/m 14,5 C 16,3 C 24,1 km/h (4 Bft)
11.07.2016 11:45 19,8 C 71 % 1005,5 hPa 0,0 l/m 19,6 km/h (3 Bft) SW 218 0 min 320 W/m 14,4 C 16,0 C 29,0 km/h (5 Bft)
11.07.2016 11:48 19,9 C 70 % 1005,4 hPa 0,0 l/m 23,4 km/h (4 Bft) W-SW 243 3 min 522 W/m 14,3 C 15,5 C 35,4 km/h (5 Bft)
11.07.2016 11:51 20,2 C 70 % 1005,5 hPa 0,0 l/m 20,5 km/h (4 Bft) W-SW 257 0 min 236 W/m 14,5 C 16,4 C 30,6 km/h (5 Bft)
11.07.2016 11:54 20,3 C 70 % 1005,5 hPa 0,0 l/m 20,1 km/h (4 Bft) S-SW 213 0 min 236 W/m 14,6 C 16,6 C 32,2 km/h (5 Bft)
11.07.2016 11:57 20,6 C 70 % 1005,4 hPa 0,0 l/m 21,1 km/h (4 Bft) SW 217 3 min 680 W/m 14,9 C 16,8 C 29,0 km/h (5 Bft)
11.07.2016 12:00 20,7 C 68 % 1005,5 hPa 0,0 l/m 21,9 km/h (4 Bft) W-SW 254 3 min 680 W/m 14,6 C 16,8 C 32,2 km/h (5 Bft)
11.07.2016 12:03 20,6 C 69 % 1005,5 hPa 0,0 l/m 21,5 km/h (4 Bft) W-SW 238 3 min 555 W/m 14,7 C 16,7 C 33,8 km/h (5 Bft)
11.07.2016 12:06 20,8 C 70 % 1005,5 hPa 0,0 l/m 17,5 km/h (3 Bft) S 173 3 min 737 W/m 15,1 C 17,7 C 30,6 km/h (5 Bft)
11.07.2016 12:09 20,8 C 70 % 1005,5 hPa 0,0 l/m 22,0 km/h (4 Bft) W-SW 243 3 min 638 W/m 15,1 C 16,9 C 38,6 km/h (6 Bft)
11.07.2016 12:12 20,6 C 69 % 1005,6 hPa 0,0 l/m 25,5 km/h (4 Bft) SW 227 3 min 686 W/m 14,7 C 16,1 C 37,0 km/h (5 Bft)
11.07.2016 12:15 20,5 C 69 % 1005,6 hPa 0,0 l/m 24,6 km/h (4 Bft) SW 218 3 min 592 W/m 14,6 C 16,1 C 38,6 km/h (6 Bft)
11.07.2016 12:18 20,3 C 69 % 1005,6 hPa 0,0 l/m 22,7 km/h (4 Bft) W-SW 254 3 min 777 W/m 14,4 C 16,1 C 37,0 km/h (5 Bft)
11.07.2016 12:21 20,7 C 70 % 1005,5 hPa 0,0 l/m 17,7 km/h (3 Bft) SW 224 0 min 373 W/m 15,0 C 17,5 C 27,4 km/h (5 Bft)
11.07.2016 12:24 20,6 C 69 % 1005,7 hPa 0,0 l/m 19,8 km/h (3 Bft) SW 217 0 min 311 W/m 14,7 C 17,0 C 30,6 km/h (5 Bft)
11.07.2016 12:27 20,4 C 69 % 1005,7 hPa 0,0 l/m 18,7 km/h (3 Bft) SW 234 0 min 410 W/m 14,5 C 17,0 C 32,2 km/h (5 Bft)
11.07.2016 12:30 20,3 C 68 % 1005,7 hPa 0,0 l/m 24,4 km/h (4 Bft) SW 215 0 min 410 W/m 14,2 C 15,9 C 37,0 km/h (5 Bft)
11.07.2016 12:33 20,2 C 69 % 1005,7 hPa 0,0 l/m 22,4 km/h (4 Bft) W-SW 247 0 min 236 W/m 14,3 C 16,1 C 37,0 km/h (5 Bft)
11.07.2016 12:36 19,9 C 68 % 1005,6 hPa 0,0 l/m 22,1 km/h (4 Bft) SW 229 0 min 211 W/m 13,8 C 15,7 C 32,2 km/h (5 Bft)
11.07.2016 12:39 19,7 C 70 % 1005,6 hPa 0,0 l/m 23,2 km/h (4 Bft) SW 220 0 min 200 W/m 14,1 C 15,3 C 33,8 km/h (5 Bft)
11.07.2016 12:42 19,6 C 71 % 1005,7 hPa 0,0 l/m 21,4 km/h (4 Bft) SW 229 0 min 195 W/m 14,2 C 15,4 C 32,2 km/h (5 Bft)
11.07.2016 12:45 19,6 C 72 % 1005,7 hPa 0,0 l/m 16,5 km/h (3 Bft) S-SW 209 0 min 202 W/m 14,4 C 16,4 C 24,1 km/h (4 Bft)
11.07.2016 12:48 19,6 C 73 % 1005,8 hPa 0,0 l/m 17,6 km/h (3 Bft) SW 219 0 min 255 W/m 14,6 C 16,2 C 25,7 km/h (4 Bft)
11.07.2016 12:51 19,6 C 72 % 1005,8 hPa 0,0 l/m 21,7 km/h (4 Bft) SW 236 0 min 309 W/m 14,4 C 15,4 C 32,2 km/h (5 Bft)
11.07.2016 12:54 19,6 C 72 % 1005,7 hPa 0,0 l/m 19,4 km/h (3 Bft) SW 218 0 min 218 W/m 14,4 C 15,8 C 33,8 km/h (5 Bft)
11.07.2016 12:57 19,7 C 72 % 1005,8 hPa 0,0 l/m 19,6 km/h (3 Bft) S-SW 212 0 min 93 W/m 14,5 C 15,9 C 33,8 km/h (5 Bft)
11.07.2016 13:00 19,6 C 71 % 1005,8 hPa 0,0 l/m 20,3 km/h (4 Bft) SW 234 0 min 104 W/m 14,2 C 15,6 C 30,6 km/h (5 Bft)
11.07.2016 13:03 19,3 C 72 % 1005,8 hPa 0,0 l/m 19,3 km/h (3 Bft) SW 234 0 min 144 W/m 14,1 C 15,4 C 30,6 km/h (5 Bft)
11.07.2016 13:06 19,2 C 73 % 1005,8 hPa 0,0 l/m 20,5 km/h (4 Bft) S-SW 202 0 min 199 W/m 14,2 C 15,1 C 30,6 km/h (5 Bft)
11.07.2016 13:09 19,3 C 72 % 1005,9 hPa 0,0 l/m 21,5 km/h (4 Bft) W-SW 242 0 min 322 W/m 14,1 C 15,0 C 32,2 km/h (5 Bft)
11.07.2016 13:12 19,5 C 73 % 1005,9 hPa 0,0 l/m 18,1 km/h (3 Bft) W-SW 250 0 min 429 W/m 14,5 C 15,9 C 25,7 km/h (4 Bft)
11.07.2016 13:15 19,9 C 72 % 1005,9 hPa 0,0 l/m 18,4 km/h (3 Bft) SW 219 0 min 357 W/m 14,7 C 16,4 C 27,4 km/h (5 Bft)
11.07.2016 13:18 20,2 C 70 % 1005,9 hPa 0,0 l/m 21,7 km/h (4 Bft) SW 236 0 min 287 W/m 14,5 C 16,2 C 32,2 km/h (5 Bft)
11.07.2016 13:21 20,1 C 71 % 1006,0 hPa 0,0 l/m 19,3 km/h (3 Bft) S-SW 212 0 min 211 W/m 14,7 C 16,5 C 27,4 km/h (5 Bft)
11.07.2016 13:24 20,0 C 69 % 1006,0 hPa 0,0 l/m 22,3 km/h (4 Bft) SW 221 0 min 148 W/m 14,1 C 15,8 C 35,4 km/h (5 Bft)
11.07.2016 13:27 19,8 C 71 % 1006,1 hPa 0,0 l/m 19,4 km/h (3 Bft) SW 214 0 min 125 W/m 14,4 C 16,1 C 30,6 km/h (5 Bft)
11.07.2016 13:30 19,7 C 70 % 1006,1 hPa 0,0 l/m 18,6 km/h (3 Bft) SW 217 0 min 118 W/m 14,1 C 16,1 C 29,0 km/h (5 Bft)
11.07.2016 13:33 19,6 C 71 % 1006,1 hPa 0,0 l/m 17,2 km/h (3 Bft) W-SW 239 0 min 169 W/m 14,2 C 16,3 C 25,7 km/h (4 Bft)
11.07.2016 13:36 19,6 C 72 % 1006,2 hPa 0,0 l/m 17,9 km/h (3 Bft) SW 225 0 min 207 W/m 14,4 C 16,1 C 24,1 km/h (4 Bft)
11.07.2016 13:39 19,6 C 71 % 1006,1 hPa 0,0 l/m 19,2 km/h (3 Bft) S-SW 211 0 min 214 W/m 14,2 C 15,8 C 25,7 km/h (4 Bft)
11.07.2016 13:42 19,6 C 72 % 1006,1 hPa 0,0 l/m 16,9 km/h (3 Bft) S-SW 197 0 min 195 W/m 14,4 C 16,3 C 25,7 km/h (4 Bft)
11.07.2016 13:45 19,6 C 70 % 1006,1 hPa 0,0 l/m 22,9 km/h (4 Bft) SW 225 0 min 230 W/m 14,0 C 15,2 C 33,8 km/h (5 Bft)
11.07.2016 13:48 19,6 C 71 % 1006,1 hPa 0,0 l/m 17,4 km/h (3 Bft) S 190 0 min 135 W/m 14,2 C 16,2 C 27,4 km/h (5 Bft)
11.07.2016 13:51 19,6 C 72 % 1006,1 hPa 0,0 l/m 17,2 km/h (3 Bft) S-SW 208 0 min 98 W/m 14,4 C 16,3 C 32,2 km/h (5 Bft)
11.07.2016 13:54 19,5 C 73 % 1006,1 hPa 0,0 l/m 17,2 km/h (3 Bft) S-SW 199 0 min 67 W/m 14,5 C 16,1 C 32,2 km/h (5 Bft)
11.07.2016 13:57 19,4 C 74 % 1006,2 hPa 0,0 l/m 16,0 km/h (3 Bft) S-SW 196 0 min 81 W/m 14,6 C 16,3 C 25,7 km/h (4 Bft)
11.07.2016 14:00 19,2 C 75 % 1006,1 hPa 0,0 l/m 12,0 km/h (2 Bft) S 191 0 min 98 W/m 14,7 C 17,1 C 22,5 km/h (4 Bft)
11.07.2016 14:03 19,1 C 75 % 1006,1 hPa 0,0 l/m 18,1 km/h (3 Bft) W-SW 244 0 min 98 W/m 14,6 C 15,4 C 25,7 km/h (4 Bft)
11.07.2016 14:06 19,1 C 76 % 1006,1 hPa 0,0 l/m 13,0 km/h (3 Bft) S-SW 196 0 min 178 W/m 14,8 C 16,7 C 20,9 km/h (4 Bft)
11.07.2016 14:09 19,1 C 76 % 1006,2 hPa 0,0 l/m 16,5 km/h (3 Bft) W-SW 238 0 min 160 W/m 14,8 C 15,8 C 25,7 km/h (4 Bft)
11.07.2016 14:12 19,2 C 75 % 1006,1 hPa 0,0 l/m 18,9 km/h (3 Bft) SW 226 0 min 165 W/m 14,7 C 15,4 C 32,2 km/h (5 Bft)
11.07.2016 14:15 19,3 C 76 % 1006,0 hPa 0,0 l/m 15,3 km/h (3 Bft) SW 219 0 min 290 W/m 15,0 C 16,3 C 27,4 km/h (5 Bft)
11.07.2016 14:18 19,4 C 75 % 1006,1 hPa 0,0 l/m 17,0 km/h (3 Bft) SW 223 0 min 244 W/m 14,8 C 16,1 C 27,4 km/h (5 Bft)
11.07.2016 14:21 19,5 C 74 % 1006,2 hPa 0,0 l/m 18,4 km/h (3 Bft) SW 214 0 min 214 W/m 14,7 C 15,9 C 32,2 km/h (5 Bft)
11.07.2016 14:24 19,5 C 74 % 1006,3 hPa 0,0 l/m 20,6 km/h (4 Bft) W-SW 250 0 min 211 W/m 14,7 C 15,4 C 30,6 km/h (5 Bft)
11.07.2016 14:27 19,4 C 73 % 1006,3 hPa 0,0 l/m 23,1 km/h (4 Bft) SW 221 0 min 181 W/m 14,4 C 14,9 C 35,4 km/h (5 Bft)
11.07.2016 14:30 19,4 C 73 % 1006,3 hPa 0,0 l/m 18,6 km/h (3 Bft) S-SW 212 0 min 165 W/m 14,4 C 15,7 C 27,4 km/h (5 Bft)
11.07.2016 14:33 19,4 C 74 % 1006,3 hPa 0,0 l/m 16,8 km/h (3 Bft) SW 230 0 min 130 W/m 14,6 C 16,1 C 29,0 km/h (5 Bft)
11.07.2016 14:36 19,3 C 74 % 1006,3 hPa 0,0 l/m 20,6 km/h (4 Bft) W-SW 257 0 min 118 W/m 14,5 C 15,2 C 33,8 km/h (5 Bft)
11.07.2016 14:39 19,2 C 73 % 1006,3 hPa 0,0 l/m 18,9 km/h (3 Bft) W-SW 250 0 min 98 W/m 14,2 C 15,4 C 29,0 km/h (5 Bft)
11.07.2016 14:42 19,1 C 74 % 1006,3 hPa 0,0 l/m 18,2 km/h (3 Bft) S-SW 213 0 min 128 W/m 14,4 C 15,4 C 30,6 km/h (5 Bft)
11.07.2016 14:45 18,9 C 75 % 1006,3 hPa 0,0 l/m 15,4 km/h (3 Bft) SW 232 0 min 185 W/m 14,4 C 15,8 C 22,5 km/h (4 Bft)
11.07.2016 14:48 19,0 C 75 % 1006,4 hPa 0,0 l/m 17,1 km/h (3 Bft) S-SW 203 0 min 250 W/m 14,5 C 15,5 C 30,6 km/h (5 Bft)
11.07.2016 14:51 19,2 C 76 % 1006,4 hPa 0,0 l/m 14,4 km/h (3 Bft) SW 232 0 min 190 W/m 14,9 C 16,4 C 22,5 km/h (4 Bft)
11.07.2016 14:54 19,3 C 75 % 1006,4 hPa 0,0 l/m 16,3 km/h (3 Bft) SW 236 0 min 202 W/m 14,8 C 16,1 C 37,0 km/h (5 Bft)
11.07.2016 14:57 19,4 C 75 % 1006,4 hPa 0,0 l/m 17,2 km/h (3 Bft) S-SW 206 0 min 183 W/m 14,8 C 16,0 C 27,4 km/h (5 Bft)
11.07.2016 15:00 19,3 C 74 % 1006,4 hPa 0,0 l/m 21,9 km/h (4 Bft) SW 217 0 min 197 W/m 14,5 C 14,9 C 37,0 km/h (5 Bft)
11.07.2016 15:03 19,3 C 74 % 1006,5 hPa 0,0 l/m 23,2 km/h (4 Bft) SW 219 0 min 220 W/m 14,5 C 14,7 C 33,8 km/h (5 Bft)
11.07.2016 15:06 19,3 C 73 % 1006,4 hPa 0,0 l/m 21,9 km/h (4 Bft) SW 219 0 min 214 W/m 14,3 C 14,9 C 30,6 km/h (5 Bft)
11.07.2016 15:09 19,3 C 73 % 1006,4 hPa 0,0 l/m 19,4 km/h (3 Bft) SW 221 0 min 223 W/m 14,3 C 15,4 C 29,0 km/h (5 Bft)
11.07.2016 15:12 19,4 C 74 % 1006,3 hPa 0,0 l/m 20,0 km/h (4 Bft) SW 215 0 min 204 W/m 14,6 C 15,4 C 33,8 km/h (5 Bft)
11.07.2016 15:15 19,5 C 74 % 1006,2 hPa 0,0 l/m 17,9 km/h (3 Bft) W-SW 242 0 min 290 W/m 14,7 C 16,0 C 30,6 km/h (5 Bft)
11.07.2016 15:18 19,7 C 73 % 1006,2 hPa 0,0 l/m 15,1 km/h (3 Bft) SW 223 0 min 290 W/m 14,7 C 16,9 C 20,9 km/h (4 Bft)
11.07.2016 15:21 19,8 C 72 % 1006,2 hPa 0,0 l/m 20,4 km/h (4 Bft) S-SW 205 0 min 352 W/m 14,6 C 15,9 C 32,2 km/h (5 Bft)
11.07.2016 15:24 19,9 C 73 % 1006,1 hPa 0,0 l/m 18,1 km/h (3 Bft) SW 236 0 min 294 W/m 14,9 C 16,4 C 37,0 km/h (5 Bft)
11.07.2016 15:27 19,9 C 72 % 1006,0 hPa 0,0 l/m 20,5 km/h (4 Bft) S-SW 209 0 min 248 W/m 14,7 C 16,0 C 32,2 km/h (5 Bft)
11.07.2016 15:30 20,1 C 72 % 1005,9 hPa 0,0 l/m 16,1 km/h (3 Bft) S-SW 213 0 min 322 W/m 14,9 C 17,1 C 25,7 km/h (4 Bft)
11.07.2016 15:33 20,2 C 71 % 1005,9 hPa 0,0 l/m 18,0 km/h (3 Bft) S 190 0 min 322 W/m 14,8 C 16,8 C 25,7 km/h (4 Bft)
11.07.2016 15:36 20,4 C 71 % 1005,9 hPa 0,0 l/m 18,3 km/h (3 Bft) S 189 0 min 359 W/m 15,0 C 17,0 C 29,0 km/h (5 Bft)
11.07.2016 15:39 20,4 C 71 % 1006,0 hPa 0,0 l/m 22,4 km/h (4 Bft) S-SW 200 0 min 374 W/m 15,0 C 16,3 C 32,2 km/h (5 Bft)
11.07.2016 15:42 20,6 C 71 % 1005,9 hPa 0,0 l/m 16,6 km/h (3 Bft) SW 215 0 min 318 W/m 15,2 C 17,6 C 25,7 km/h (4 Bft)
11.07.2016 15:45 20,6 C 71 % 1005,9 hPa 0,0 l/m 19,3 km/h (3 Bft) W-SW 239 0 min 294 W/m 15,2 C 17,1 C 32,2 km/h (5 Bft)
11.07.2016 15:48 20,5 C 70 % 1005,9 hPa 0,0 l/m 21,8 km/h (4 Bft) S 187 0 min 339 W/m 14,8 C 16,5 C 32,2 km/h (5 Bft)
11.07.2016 15:51 20,4 C 69 % 1006,0 hPa 0,0 l/m 21,4 km/h (4 Bft) S-SW 196 0 min 350 W/m 14,5 C 16,5 C 29,0 km/h (5 Bft)
11.07.2016 15:54 20,6 C 69 % 1006,0 hPa 0,0 l/m 21,8 km/h (4 Bft) W 266 3 min 550 W/m 14,7 C 16,7 C 33,8 km/h (5 Bft)
11.07.2016 15:57 20,6 C 68 % 1006,0 hPa 0,0 l/m 20,2 km/h (4 Bft) SW 230 0 min 244 W/m 14,5 C 16,9 C 29,0 km/h (5 Bft)
11.07.2016 16:00 20,6 C 70 % 1006,0 hPa 0,0 l/m 16,7 km/h (3 Bft) SW 226 3 min 410 W/m 14,9 C 17,6 C 24,1 km/h (4 Bft)
11.07.2016 16:03 20,9 C 68 % 1005,9 hPa 0,0 l/m 19,5 km/h (3 Bft) S 182 3 min 410 W/m 14,8 C 17,5 C 40,2 km/h (6 Bft)
11.07.2016 16:06 20,9 C 69 % 1005,9 hPa 0,0 l/m 16,0 km/h (3 Bft) SW 225 3 min 515 W/m 15,0 C 18,1 C 29,0 km/h (5 Bft)
11.07.2016 16:09 20,9 C 68 % 1005,9 hPa 0,0 l/m 20,6 km/h (4 Bft) S-SW 205 0 min 214 W/m 14,8 C 17,3 C 37,0 km/h (5 Bft)
11.07.2016 16:12 20,8 C 68 % 1005,9 hPa 0,0 l/m 19,0 km/h (3 Bft) SW 214 0 min 139 W/m 14,7 C 17,4 C 29,0 km/h (5 Bft)
11.07.2016 16:15 20,7 C 68 % 1006,0 hPa 0,0 l/m 21,0 km/h (4 Bft) S-SW 205 0 min 125 W/m 14,6 C 16,9 C 33,8 km/h (5 Bft)
11.07.2016 16:18 20,4 C 69 % 1006,0 hPa 0,0 l/m 17,1 km/h (3 Bft) W-SW 244 0 min 74 W/m 14,5 C 17,3 C 29,0 km/h (5 Bft)
11.07.2016 16:21 20,2 C 70 % 1006,0 hPa 0,0 l/m 13,8 km/h (3 Bft) S-SW 195 0 min 60 W/m 14,5 C 17,8 C 24,1 km/h (4 Bft)
11.07.2016 16:24 20,1 C 70 % 1006,1 hPa 0,0 l/m 22,0 km/h (4 Bft) SW 225 0 min 49 W/m 14,5 C 16,0 C 29,0 km/h (5 Bft)
11.07.2016 16:27 19,9 C 72 % 1006,1 hPa 0,0 l/m 19,1 km/h (3 Bft) S-SW 206 0 min 28 W/m 14,7 C 16,2 C 27,4 km/h (5 Bft)
11.07.2016 16:30 19,8 C 71 % 1006,2 hPa 0,0 l/m 24,1 km/h (4 Bft) SW 225 0 min 35 W/m 14,4 C 15,2 C 37,0 km/h (5 Bft)
11.07.2016 16:33 19,5 C 73 % 1006,2 hPa 0,0 l/m 20,9 km/h (4 Bft) SW 233 0 min 95 W/m 14,5 C 15,4 C 37,0 km/h (5 Bft)
11.07.2016 16:36 19,2 C 74 % 1006,2 hPa 0,0 l/m 15,7 km/h (3 Bft) SW 218 0 min 141 W/m 14,4 C 16,1 C 22,5 km/h (4 Bft)
11.07.2016 16:39 19,2 C 76 % 1006,3 hPa 0,0 l/m 15,6 km/h (3 Bft) SW 224 0 min 114 W/m 14,9 C 16,1 C 24,1 km/h (4 Bft)
11.07.2016 16:42 19,2 C 76 % 1006,4 hPa 0,0 l/m 17,1 km/h (3 Bft) W 263 0 min 144 W/m 14,9 C 15,8 C 32,2 km/h (5 Bft)
11.07.2016 16:45 19,3 C 75 % 1006,3 hPa 0,0 l/m 19,4 km/h (3 Bft) S-SW 211 0 min 153 W/m 14,8 C 15,4 C 37,0 km/h (5 Bft)
11.07.2016 16:48 19,4 C 74 % 1006,3 hPa 0,0 l/m 23,3 km/h (4 Bft) S-SW 209 0 min 118 W/m 14,6 C 14,8 C 35,4 km/h (5 Bft)
11.07.2016 16:51 19,4 C 73 % 1006,3 hPa 0,0 l/m 22,5 km/h (4 Bft) W-SW 247 0 min 72 W/m 14,4 C 15,0 C 30,6 km/h (5 Bft)
11.07.2016 16:54 19,4 C 74 % 1006,3 hPa 0,0 l/m 19,1 km/h (3 Bft) S-SW 209 0 min 113 W/m 14,6 C 15,6 C 27,4 km/h (5 Bft)
11.07.2016 16:57 19,4 C 74 % 1006,3 hPa 0,0 l/m 17,0 km/h (3 Bft) SW 219 0 min 104 W/m 14,6 C 16,1 C 27,4 km/h (5 Bft)
11.07.2016 17:00 19,3 C 76 % 1006,3 hPa 0,0 l/m 16,7 km/h (3 Bft) SW 221 0 min 174 W/m 15,0 C 16,0 C 24,1 km/h (4 Bft)
11.07.2016 17:03 19,2 C 76 % 1006,3 hPa 0,0 l/m 16,7 km/h (3 Bft) SW 226 0 min 176 W/m 14,9 C 15,9 C 24,1 km/h (4 Bft)
11.07.2016 17:06 19,2 C 75 % 1006,3 hPa 0,0 l/m 19,3 km/h (3 Bft) S-SW 200 0 min 149 W/m 14,7 C 15,3 C 32,2 km/h (5 Bft)
11.07.2016 17:09 19,3 C 75 % 1006,3 hPa 0,0 l/m 16,7 km/h (3 Bft) SW 225 0 min 144 W/m 14,8 C 16,0 C 22,5 km/h (4 Bft)
11.07.2016 17:12 19,3 C 74 % 1006,3 hPa 0,0 l/m 18,6 km/h (3 Bft) W-SW 241 0 min 128 W/m 14,5 C 15,6 C 27,4 km/h (5 Bft)
11.07.2016 17:15 19,4 C 74 % 1006,2 hPa 0,0 l/m 19,1 km/h (3 Bft) SW 229 0 min 281 W/m 14,6 C 15,6 C 27,4 km/h (5 Bft)
11.07.2016 17:18 19,6 C 74 % 1006,1 hPa 0,0 l/m 17,8 km/h (3 Bft) SW 225 0 min 320 W/m 14,8 C 16,1 C 27,4 km/h (5 Bft)
11.07.2016 17:21 19,8 C 74 % 1006,1 hPa 0,0 l/m 16,8 km/h (3 Bft) S-SW 206 3 min 381 W/m 15,0 C 16,6 C 27,4 km/h (5 Bft)
11.07.2016 17:24 20,2 C 75 % 1006,1 hPa 0,0 l/m 13,5 km/h (3 Bft) SW 221 3 min 650 W/m 15,6 C 17,9 C 19,3 km/h (3 Bft)
11.07.2016 17:27 20,6 C 72 % 1006,0 hPa 0,0 l/m 18,5 km/h (3 Bft) S-SW 209 3 min 650 W/m 15,4 C 17,3 C 29,0 km/h (5 Bft)
11.07.2016 17:30 20,6 C 72 % 1006,1 hPa 0,0 l/m 15,9 km/h (3 Bft) SW 219 0 min 139 W/m 15,4 C 17,8 C 25,7 km/h (4 Bft)
11.07.2016 17:33 20,4 C 71 % 1006,0 hPa 0,0 l/m 19,0 km/h (3 Bft) SW 236 0 min 100 W/m 15,0 C 16,9 C 33,8 km/h (5 Bft)
11.07.2016 17:36 20,3 C 70 % 1006,1 hPa 0,0 l/m 21,1 km/h (4 Bft) W-SW 244 0 min 49 W/m 14,6 C 16,4 C 30,6 km/h (5 Bft)
11.07.2016 17:39 20,2 C 72 % 1006,2 hPa 0,0 l/m 18,0 km/h (3 Bft) SW 229 0 min 72 W/m 15,0 C 16,8 C 24,1 km/h (4 Bft)
11.07.2016 17:42 19,9 C 72 % 1006,2 hPa 0,0 l/m 18,8 km/h (3 Bft) S-SW 205 0 min 93 W/m 14,7 C 16,3 C 27,4 km/h (5 Bft)
11.07.2016 17:45 19,8 C 73 % 1006,2 hPa 0,0 l/m 19,6 km/h (3 Bft) W-SW 249 0 min 188 W/m 14,8 C 16,0 C 32,2 km/h (5 Bft)
11.07.2016 17:48 19,7 C 74 % 1006,1 hPa 0,0 l/m 17,3 km/h (3 Bft) W-SW 245 0 min 237 W/m 14,9 C 16,4 C 29,0 km/h (5 Bft)
11.07.2016 17:51 19,8 C 74 % 1006,2 hPa 0,0 l/m 18,4 km/h (3 Bft) SW 225 0 min 248 W/m 15,0 C 16,3 C 29,0 km/h (5 Bft)
11.07.2016 17:54 20,0 C 74 % 1006,2 hPa 0,0 l/m 17,8 km/h (3 Bft) S-SW 205 3 min 381 W/m 15,2 C 16,6 C 25,7 km/h (4 Bft)
11.07.2016 17:57 20,1 C 73 % 1006,2 hPa 0,0 l/m 19,7 km/h (3 Bft) S-SW 200 0 min 128 W/m 15,1 C 16,4 C 30,6 km/h (5 Bft)
11.07.2016 18:00 19,9 C 72 % 1006,2 hPa 0,0 l/m 22,6 km/h (4 Bft) SW 218 0 min 120 W/m 14,7 C 15,6 C 30,6 km/h (5 Bft)
11.07.2016 18:03 19,7 C 73 % 1006,2 hPa 0,0 l/m 18,9 km/h (3 Bft) SW 236 0 min 167 W/m 14,7 C 16,0 C 27,4 km/h (5 Bft)
11.07.2016 18:06 19,6 C 74 % 1006,1 hPa 0,0 l/m 18,3 km/h (3 Bft) SW 232 0 min 121 W/m 14,8 C 16,0 C 29,0 km/h (5 Bft)
11.07.2016 18:09 19,5 C 75 % 1006,1 hPa 0,0 l/m 21,9 km/h (4 Bft) S 190 0 min 165 W/m 14,9 C 15,2 C 30,6 km/h (5 Bft)
11.07.2016 18:12 19,4 C 76 % 1006,1 hPa 0,0 l/m 17,8 km/h (3 Bft) SW 227 0 min 151 W/m 15,1 C 15,9 C 33,8 km/h (5 Bft)
11.07.2016 18:15 19,4 C 76 % 1006,1 hPa 0,0 l/m 16,6 km/h (3 Bft) S 190 0 min 121 W/m 15,1 C 16,1 C 24,1 km/h (4 Bft)
11.07.2016 18:18 19,5 C 76 % 1006,0 hPa 0,0 l/m 17,7 km/h (3 Bft) W 260 0 min 118 W/m 15,2 C 16,0 C 29,0 km/h (5 Bft)
11.07.2016 18:21 19,5 C 76 % 1006,1 hPa 0,0 l/m 17,5 km/h (3 Bft) SW 220 0 min 139 W/m 15,2 C 16,1 C 27,4 km/h (5 Bft)
11.07.2016 18:24 19,6 C 77 % 1006,0 hPa 0,0 l/m 16,6 km/h (3 Bft) S-SW 199 3 min 260 W/m 15,5 C 16,4 C 29,0 km/h (5 Bft)
11.07.2016 18:27 19,6 C 77 % 1006,1 hPa 0,0 l/m 19,9 km/h (4 Bft) SW 217 0 min 172 W/m 15,5 C 15,7 C 27,4 km/h (5 Bft)
11.07.2016 18:30 19,6 C 77 % 1006,1 hPa 0,0 l/m 16,3 km/h (3 Bft) SW 236 0 min 185 W/m 15,5 C 16,5 C 25,7 km/h (4 Bft)
11.07.2016 18:33 19,7 C 77 % 1006,1 hPa 0,0 l/m 14,3 km/h (3 Bft) W-SW 253 3 min 501 W/m 15,5 C 17,1 C 19,3 km/h (3 Bft)
11.07.2016 18:36 19,8 C 76 % 1006,1 hPa 0,0 l/m 19,0 km/h (3 Bft) W-SW 251 3 min 413 W/m 15,4 C 16,1 C 27,4 km/h (5 Bft)
11.07.2016 18:39 20,0 C 76 % 1006,0 hPa 0,0 l/m 16,9 km/h (3 Bft) S-SW 212 3 min 417 W/m 15,6 C 16,8 C 32,2 km/h (5 Bft)
11.07.2016 18:42 19,9 C 75 % 1006,0 hPa 0,0 l/m 17,3 km/h (3 Bft) S-SW 213 0 min 128 W/m 15,3 C 16,6 C 30,6 km/h (5 Bft)
11.07.2016 18:45 19,8 C 75 % 1005,9 hPa 0,0 l/m 19,5 km/h (3 Bft) SW 236 0 min 93 W/m 15,2 C 16,0 C 30,6 km/h (5 Bft)
11.07.2016 18:48 19,8 C 75 % 1005,9 hPa 0,0 l/m 17,5 km/h (3 Bft) SW 215 0 min 105 W/m 15,2 C 16,4 C 29,0 km/h (5 Bft)
11.07.2016 18:51 19,8 C 75 % 1005,9 hPa 0,0 l/m 16,5 km/h (3 Bft) S-SW 213 0 min 121 W/m 15,2 C 16,7 C 24,1 km/h (4 Bft)
11.07.2016 18:54 19,7 C 75 % 1005,9 hPa 0,0 l/m 16,5 km/h (3 Bft) W-SW 239 0 min 132 W/m 15,1 C 16,5 C 22,5 km/h (4 Bft)
11.07.2016 18:57 19,8 C 76 % 1006,0 hPa 0,0 l/m 15,2 km/h (3 Bft) SW 219 0 min 167 W/m 15,4 C 17,0 C 22,5 km/h (4 Bft)
11.07.2016 19:00 19,8 C 75 % 1005,9 hPa 0,0 l/m 18,1 km/h (3 Bft) SW 228 0 min 167 W/m 15,2 C 16,3 C 24,1 km/h (4 Bft)
11.07.2016 19:03 19,9 C 74 % 1005,9 hPa 0,0 l/m 21,5 km/h (4 Bft) S-SW 213 0 min 128 W/m 15,1 C 15,8 C 33,8 km/h (5 Bft)
11.07.2016 19:06 20,0 C 74 % 1005,9 hPa 0,0 l/m 21,4 km/h (4 Bft) W-SW 242 3 min 371 W/m 15,2 C 16,0 C 35,4 km/h (5 Bft)
11.07.2016 19:09 20,2 C 72 % 1005,9 hPa 0,0 l/m 19,9 km/h (4 Bft) S-SW 210 3 min 341 W/m 15,0 C 16,5 C 33,8 km/h (5 Bft)
11.07.2016 19:12 20,3 C 72 % 1006,0 hPa 0,0 l/m 22,3 km/h (4 Bft) W 270 3 min 329 W/m 15,1 C 16,2 C 32,2 km/h (5 Bft)
11.07.2016 19:15 20,4 C 72 % 1006,0 hPa 0,0 l/m 18,8 km/h (3 Bft) SW 228 3 min 311 W/m 15,2 C 16,9 C 38,6 km/h (6 Bft)
11.07.2016 19:18 20,4 C 70 % 1006,0 hPa 0,0 l/m 21,4 km/h (4 Bft) SW 227 3 min 281 W/m 14,7 C 16,5 C 32,2 km/h (5 Bft)
11.07.2016 19:21 20,4 C 71 % 1006,0 hPa 0,0 l/m 19,2 km/h (3 Bft) SW 228 3 min 285 W/m 15,0 C 16,9 C 35,4 km/h (5 Bft)
11.07.2016 19:24 20,3 C 71 % 1006,0 hPa 0,0 l/m 18,7 km/h (3 Bft) W 261 0 min 165 W/m 14,9 C 16,8 C 29,0 km/h (5 Bft)
11.07.2016 19:27 20,2 C 71 % 1006,1 hPa 0,0 l/m 17,2 km/h (3 Bft) SW 223 3 min 214 W/m 14,8 C 17,0 C 27,4 km/h (5 Bft)
11.07.2016 19:30 20,1 C 72 % 1006,1 hPa 0,0 l/m 14,7 km/h (3 Bft) SW 219 0 min 56 W/m 14,9 C 17,4 C 29,0 km/h (5 Bft)
11.07.2016 19:33 19,9 C 73 % 1006,1 hPa 0,0 l/m 15,4 km/h (3 Bft) SW 217 0 min 84 W/m 14,9 C 17,0 C 22,5 km/h (4 Bft)
11.07.2016 19:36 19,8 C 73 % 1006,1 hPa 0,0 l/m 19,7 km/h (3 Bft) SW 228 0 min 77 W/m 14,8 C 16,0 C 29,0 km/h (5 Bft)
11.07.2016 19:39 19,7 C 73 % 1006,0 hPa 0,0 l/m 16,1 km/h (3 Bft) W-SW 258 0 min 105 W/m 14,7 C 16,6 C 27,4 km/h (5 Bft)
11.07.2016 19:42 19,7 C 73 % 1006,0 hPa 0,0 l/m 17,4 km/h (3 Bft) W 262 0 min 109 W/m 14,7 C 16,3 C 27,4 km/h (5 Bft)
11.07.2016 19:45 19,7 C 73 % 1006,1 hPa 0,0 l/m 16,7 km/h (3 Bft) SW 233 3 min 239 W/m 14,7 C 16,5 C 24,1 km/h (4 Bft)
11.07.2016 19:48 19,8 C 73 % 1006,1 hPa 0,0 l/m 16,1 km/h (3 Bft) W-SW 249 0 min 72 W/m 14,8 C 16,7 C 29,0 km/h (5 Bft)
11.07.2016 19:51 19,8 C 74 % 1006,1 hPa 0,0 l/m 14,2 km/h (3 Bft) W 261 3 min 221 W/m 15,0 C 17,2 C 24,1 km/h (4 Bft)
11.07.2016 19:54 19,8 C 74 % 1006,1 hPa 0,0 l/m 14,0 km/h (3 Bft) SW 232 0 min 47 W/m 15,0 C 17,3 C 24,1 km/h (4 Bft)
11.07.2016 19:57 19,8 C 75 % 1006,1 hPa 0,0 l/m 11,1 km/h (2 Bft) SW 229 0 min 51 W/m 15,2 C 18,1 C 17,7 km/h (3 Bft)
11.07.2016 20:00 19,7 C 75 % 1006,1 hPa 0,0 l/m 14,0 km/h (3 Bft) S-SW 202 0 min 40 W/m 15,1 C 17,1 C 22,5 km/h (4 Bft)
11.07.2016 20:03 19,6 C 75 % 1006,1 hPa 0,0 l/m 16,5 km/h (3 Bft) SW 223 0 min 42 W/m 15,0 C 16,4 C 24,1 km/h (4 Bft)
11.07.2016 20:06 19,6 C 75 % 1006,1 hPa 0,0 l/m 12,3 km/h (2 Bft) SW 214 0 min 37 W/m 15,0 C 17,5 C 24,1 km/h (4 Bft)
11.07.2016 20:09 19,5 C 75 % 1006,1 hPa 0,0 l/m 11,8 km/h (2 Bft) SW 216 0 min 37 W/m 14,9 C 17,5 C 19,3 km/h (3 Bft)
11.07.2016 20:12 19,5 C 75 % 1006,1 hPa 0,0 l/m 15,0 km/h (3 Bft) W-SW 254 0 min 33 W/m 14,9 C 16,6 C 20,9 km/h (4 Bft)
11.07.2016 20:15 19,5 C 74 % 1006,1 hPa 0,0 l/m 15,6 km/h (3 Bft) S-SW 203 0 min 23 W/m 14,7 C 16,5 C 22,5 km/h (4 Bft)
11.07.2016 20:18 19,5 C 74 % 1006,1 hPa 0,0 l/m 16,1 km/h (3 Bft) SW 236 0 min 21 W/m 14,7 C 16,4 C 25,7 km/h (4 Bft)
11.07.2016 20:21 19,5 C 73 % 1006,1 hPa 0,0 l/m 19,1 km/h (3 Bft) S-SW 211 0 min 30 W/m 14,5 C 15,7 C 29,0 km/h (5 Bft)
11.07.2016 20:24 19,6 C 72 % 1006,1 hPa 0,0 l/m 19,8 km/h (3 Bft) S-SW 200 0 min 28 W/m 14,4 C 15,7 C 30,6 km/h (5 Bft)
11.07.2016 20:27 19,6 C 72 % 1006,2 hPa 0,0 l/m 20,1 km/h (4 Bft) W-SW 243 0 min 35 W/m 14,4 C 15,7 C 32,2 km/h (5 Bft)
11.07.2016 20:30 19,6 C 73 % 1006,1 hPa 0,0 l/m 16,6 km/h (3 Bft) W-SW 240 0 min 28 W/m 14,6 C 16,4 C 25,7 km/h (4 Bft)
11.07.2016 20:33 19,6 C 73 % 1006,0 hPa 0,0 l/m 16,5 km/h (3 Bft) W-SW 242 0 min 21 W/m 14,6 C 16,4 C 29,0 km/h (5 Bft)
11.07.2016 20:36 19,6 C 73 % 1006,1 hPa 0,0 l/m 17,6 km/h (3 Bft) SW 224 0 min 21 W/m 14,6 C 16,2 C 25,7 km/h (4 Bft)
11.07.2016 20:39 19,6 C 74 % 1006,2 hPa 0,0 l/m 17,9 km/h (3 Bft) W-SW 256 0 min 23 W/m 14,8 C 16,1 C 27,4 km/h (5 Bft)
11.07.2016 20:42 19,6 C 75 % 1006,2 hPa 0,0 l/m 15,3 km/h (3 Bft) SW 218 0 min 19 W/m 15,0 C 16,7 C 24,1 km/h (4 Bft)
11.07.2016 20:45 19,5 C 75 % 1006,2 hPa 0,0 l/m 13,3 km/h (3 Bft) W-SW 251 0 min 14 W/m 14,9 C 17,1 C 19,3 km/h (3 Bft)
11.07.2016 20:48 19,5 C 76 % 1006,2 hPa 0,0 l/m 13,1 km/h (3 Bft) W-SW 239 0 min 14 W/m 15,2 C 17,1 C 22,5 km/h (4 Bft)
11.07.2016 20:51 19,4 C 76 % 1006,2 hPa 0,0 l/m 14,6 km/h (3 Bft) SW 229 0 min 14 W/m 15,1 C 16,6 C 25,7 km/h (4 Bft)
11.07.2016 20:54 19,4 C 76 % 1006,1 hPa 0,0 l/m 12,7 km/h (3 Bft) SW 228 0 min 14 W/m 15,1 C 17,1 C 19,3 km/h (3 Bft)
11.07.2016 20:57 19,4 C 76 % 1006,0 hPa 0,0 l/m 14,7 km/h (3 Bft) W-SW 242 0 min 12 W/m 15,1 C 16,6 C 27,4 km/h (5 Bft)
11.07.2016 21:00 19,3 C 75 % 1006,1 hPa 0,0 l/m 16,4 km/h (3 Bft) W-SW 239 0 min 19 W/m 14,8 C 16,1 C 30,6 km/h (5 Bft)
11.07.2016 21:03 19,4 C 75 % 1006,1 hPa 0,0 l/m 14,4 km/h (3 Bft) W-SW 246 0 min 19 W/m 14,8 C 16,7 C 22,5 km/h (4 Bft)
11.07.2016 21:06 19,3 C 75 % 1006,1 hPa 0,0 l/m 15,9 km/h (3 Bft) SW 217 0 min 12 W/m 14,8 C 16,2 C 22,5 km/h (4 Bft)
11.07.2016 21:09 19,3 C 75 % 1006,2 hPa 0,0 l/m 13,3 km/h (3 Bft) SW 225 0 min 11 W/m 14,8 C 16,8 C 20,9 km/h (4 Bft)
11.07.2016 21:12 19,3 C 76 % 1006,2 hPa 0,0 l/m 11,8 km/h (2 Bft) SW 236 0 min 12 W/m 15,0 C 17,3 C 24,1 km/h (4 Bft)
11.07.2016 21:15 19,3 C 76 % 1006,2 hPa 0,0 l/m 12,9 km/h (3 Bft) W-SW 247 0 min 14 W/m 15,0 C 17,0 C 22,5 km/h (4 Bft)
11.07.2016 21:18 19,3 C 76 % 1006,2 hPa 0,0 l/m 14,0 km/h (3 Bft) SW 229 0 min 18 W/m 15,0 C 16,7 C 25,7 km/h (4 Bft)
11.07.2016 21:21 19,2 C 77 % 1006,3 hPa 0,0 l/m 12,3 km/h (2 Bft) SW 232 0 min 12 W/m 15,1 C 17,0 C 24,1 km/h (4 Bft)
11.07.2016 21:24 19,2 C 77 % 1006,3 hPa 0,0 l/m 15,4 km/h (3 Bft) SW 221 0 min 11 W/m 15,1 C 16,2 C 27,4 km/h (5 Bft)
11.07.2016 21:27 19,2 C 76 % 1006,3 hPa 0,0 l/m 14,3 km/h (3 Bft) SW 227 0 min 7 W/m 14,9 C 16,5 C 29,0 km/h (5 Bft)
11.07.2016 21:30 19,2 C 76 % 1006,3 hPa 0,0 l/m 15,5 km/h (3 Bft) S-SW 213 0 min 5 W/m 14,9 C 16,2 C 22,5 km/h (4 Bft)
11.07.2016 21:33 19,2 C 76 % 1006,3 hPa 0,0 l/m 15,8 km/h (3 Bft) SW 217 0 min 7 W/m 14,9 C 16,1 C 24,1 km/h (4 Bft)
11.07.2016 21:36 19,2 C 77 % 1006,3 hPa 0,0 l/m 14,3 km/h (3 Bft) SW 219 0 min 7 W/m 15,1 C 16,5 C 20,9 km/h (4 Bft)
11.07.2016 21:39 19,1 C 77 % 1006,3 hPa 0,0 l/m 14,2 km/h (3 Bft) W 259 0 min 7 W/m 15,0 C 16,4 C 25,7 km/h (4 Bft)
11.07.2016 21:42 19,1 C 77 % 1006,4 hPa 0,0 l/m 15,9 km/h (3 Bft) S-SW 213 0 min 5 W/m 15,0 C 15,9 C 27,4 km/h (5 Bft)
11.07.2016 21:45 19,1 C 77 % 1006,3 hPa 0,0 l/m 15,3 km/h (3 Bft) SW 223 0 min 0 W/m 15,0 C 16,1 C 24,1 km/h (4 Bft)
11.07.2016 21:48 19,0 C 77 % 1006,4 hPa 0,0 l/m 17,5 km/h (3 Bft) W-SW 241 0 min 0 W/m 14,9 C 15,4 C 27,4 km/h (5 Bft)
11.07.2016 21:51 19,0 C 77 % 1006,3 hPa 0,0 l/m 14,9 km/h (3 Bft) SW 229 0 min 0 W/m 14,9 C 16,1 C 22,5 km/h (4 Bft)
11.07.2016 21:54 18,9 C 77 % 1006,4 hPa 0,0 l/m 15,2 km/h (3 Bft) SW 225 0 min 0 W/m 14,8 C 15,9 C 24,1 km/h (4 Bft)
11.07.2016 21:57 18,9 C 77 % 1006,5 hPa 0,0 l/m 17,6 km/h (3 Bft) SW 227 0 min 0 W/m 14,8 C 15,3 C 25,7 km/h (4 Bft)
11.07.2016 22:00 18,9 C 77 % 1006,5 hPa 0,0 l/m 17,7 km/h (3 Bft) S-SW 210 0 min 0 W/m 14,8 C 15,3 C 24,1 km/h (4 Bft)
11.07.2016 22:03 18,9 C 77 % 1006,4 hPa 0,0 l/m 13,8 km/h (3 Bft) SW 227 0 min 0 W/m 14,8 C 16,2 C 24,1 km/h (4 Bft)
11.07.2016 22:06 18,9 C 77 % 1006,5 hPa 0,0 l/m 16,2 km/h (3 Bft) SW 217 0 min 0 W/m 14,8 C 15,6 C 22,5 km/h (4 Bft)
11.07.2016 22:09 18,9 C 77 % 1006,5 hPa 0,0 l/m 15,8 km/h (3 Bft) SW 219 0 min 0 W/m 14,8 C 15,7 C 22,5 km/h (4 Bft)
11.07.2016 22:12 18,8 C 76 % 1006,5 hPa 0,0 l/m 16,8 km/h (3 Bft) SW 227 0 min 0 W/m 14,5 C 15,4 C 24,1 km/h (4 Bft)
11.07.2016 22:15 18,9 C 76 % 1006,6 hPa 0,0 l/m 20,5 km/h (4 Bft) S-SW 207 0 min 0 W/m 14,6 C 14,7 C 29,0 km/h (5 Bft)
11.07.2016 22:18 18,9 C 76 % 1006,5 hPa 0,0 l/m 16,4 km/h (3 Bft) S-SW 209 0 min 0 W/m 14,6 C 15,6 C 25,7 km/h (4 Bft)
11.07.2016 22:21 18,9 C 75 % 1006,5 hPa 0,0 l/m 21,8 km/h (4 Bft) SW 223 0 min 0 W/m 14,4 C 14,4 C 32,2 km/h (5 Bft)
11.07.2016 22:24 18,9 C 75 % 1006,5 hPa 0,0 l/m 16,9 km/h (3 Bft) SW 223 0 min 0 W/m 14,4 C 15,5 C 27,4 km/h (5 Bft)
11.07.2016 22:27 18,9 C 75 % 1006,5 hPa 0,0 l/m 19,3 km/h (3 Bft) S-SW 209 0 min 0 W/m 14,4 C 14,9 C 29,0 km/h (5 Bft)
11.07.2016 22:30 18,9 C 75 % 1006,6 hPa 0,0 l/m 17,2 km/h (3 Bft) SW 225 0 min 0 W/m 14,4 C 15,4 C 30,6 km/h (5 Bft)
11.07.2016 22:33 18,9 C 75 % 1006,5 hPa 0,0 l/m 18,9 km/h (3 Bft) SW 217 0 min 0 W/m 14,4 C 15,0 C 27,4 km/h (5 Bft)
11.07.2016 22:36 18,9 C 75 % 1006,5 hPa 0,0 l/m 16,9 km/h (3 Bft) SW 228 0 min 0 W/m 14,4 C 15,5 C 27,4 km/h (5 Bft)
11.07.2016 22:39 18,8 C 75 % 1006,5 hPa 0,0 l/m 20,3 km/h (4 Bft) SW 223 0 min 0 W/m 14,3 C 14,6 C 29,0 km/h (5 Bft)
11.07.2016 22:42 18,9 C 75 % 1006,5 hPa 0,0 l/m 18,6 km/h (3 Bft) SW 232 0 min 0 W/m 14,4 C 15,1 C 27,4 km/h (5 Bft)
11.07.2016 22:45 18,8 C 75 % 1006,6 hPa 0,0 l/m 17,2 km/h (3 Bft) SW 235 0 min 0 W/m 14,3 C 15,3 C 27,4 km/h (5 Bft)
11.07.2016 22:48 18,8 C 76 % 1006,5 hPa 0,0 l/m 17,8 km/h (3 Bft) SW 221 0 min 0 W/m 14,5 C 15,1 C 30,6 km/h (5 Bft)
11.07.2016 22:51 18,8 C 76 % 1006,6 hPa 0,0 l/m 17,8 km/h (3 Bft) SW 216 0 min 0 W/m 14,5 C 15,1 C 25,7 km/h (4 Bft)
11.07.2016 22:54 18,8 C 76 % 1006,5 hPa 0,0 l/m 16,7 km/h (3 Bft) SW 231 0 min 0 W/m 14,5 C 15,4 C 24,1 km/h (4 Bft)
11.07.2016 22:57 18,8 C 76 % 1006,6 hPa 0,0 l/m 22,1 km/h (4 Bft) W-SW 245 0 min 0 W/m 14,5 C 14,3 C 33,8 km/h (5 Bft)
11.07.2016 23:00 18,8 C 76 % 1006,6 hPa 0,0 l/m 20,7 km/h (4 Bft) SW 224 0 min 0 W/m 14,5 C 14,5 C 33,8 km/h (5 Bft)
11.07.2016 23:03 18,8 C 76 % 1006,7 hPa 0,0 l/m 18,8 km/h (3 Bft) SW 234 0 min 0 W/m 14,5 C 14,9 C 33,8 km/h (5 Bft)
11.07.2016 23:06 18,8 C 76 % 1006,7 hPa 0,0 l/m 18,9 km/h (3 Bft) W-SW 258 0 min 0 W/m 14,5 C 14,9 C 27,4 km/h (5 Bft)
11.07.2016 23:09 18,8 C 76 % 1006,7 hPa 0,0 l/m 17,2 km/h (3 Bft) SW 216 0 min 0 W/m 14,5 C 15,3 C 32,2 km/h (5 Bft)
11.07.2016 23:12 18,8 C 77 % 1006,7 hPa 0,0 l/m 14,1 km/h (3 Bft) SW 224 0 min 0 W/m 14,7 C 16,0 C 25,7 km/h (4 Bft)
11.07.2016 23:15 18,7 C 76 % 1006,8 hPa 0,0 l/m 19,2 km/h (3 Bft) SW 236 0 min 0 W/m 14,4 C 14,7 C 27,4 km/h (5 Bft)
11.07.2016 23:18 18,7 C 76 % 1006,7 hPa 0,0 l/m 17,3 km/h (3 Bft) SW 232 0 min 0 W/m 14,4 C 15,1 C 29,0 km/h (5 Bft)
11.07.2016 23:21 18,7 C 77 % 1006,8 hPa 0,0 l/m 15,7 km/h (3 Bft) SW 235 0 min 0 W/m 14,6 C 15,5 C 22,5 km/h (4 Bft)
11.07.2016 23:24 18,7 C 77 % 1006,8 hPa 0,0 l/m 15,4 km/h (3 Bft) SW 226 0 min 0 W/m 14,6 C 15,6 C 27,4 km/h (5 Bft)
11.07.2016 23:27 18,7 C 77 % 1006,8 hPa 0,0 l/m 16,5 km/h (3 Bft) SW 220 0 min 0 W/m 14,6 C 15,3 C 25,7 km/h (4 Bft)
11.07.2016 23:30 18,7 C 77 % 1006,8 hPa 0,0 l/m 19,3 km/h (3 Bft) SW 230 0 min 0 W/m 14,6 C 14,7 C 25,7 km/h (4 Bft)
11.07.2016 23:33 18,7 C 77 % 1006,9 hPa 0,0 l/m 17,0 km/h (3 Bft) SW 219 0 min 0 W/m 14,6 C 15,2 C 29,0 km/h (5 Bft)
11.07.2016 23:36 18,6 C 77 % 1006,8 hPa 0,0 l/m 17,0 km/h (3 Bft) SW 219 0 min 0 W/m 14,5 C 15,1 C 24,1 km/h (4 Bft)
11.07.2016 23:39 18,6 C 77 % 1006,8 hPa 0,0 l/m 19,6 km/h (3 Bft) SW 230 0 min 0 W/m 14,5 C 14,5 C 30,6 km/h (5 Bft)
11.07.2016 23:42 18,6 C 77 % 1006,9 hPa 0,0 l/m 19,9 km/h (4 Bft) SW 225 0 min 0 W/m 14,5 C 14,4 C 30,6 km/h (5 Bft)
11.07.2016 23:45 18,6 C 78 % 1006,9 hPa 0,0 l/m 17,7 km/h (3 Bft) SW 219 0 min 0 W/m 14,7 C 14,9 C 29,0 km/h (5 Bft)
11.07.2016 23:48 18,6 C 78 % 1006,9 hPa 0,0 l/m 17,4 km/h (3 Bft) SW 217 0 min 0 W/m 14,7 C 15,0 C 30,6 km/h (5 Bft)
11.07.2016 23:51 18,5 C 78 % 1006,9 hPa 0,0 l/m 13,9 km/h (3 Bft) S-SW 213 0 min 0 W/m 14,6 C 15,7 C 22,5 km/h (4 Bft)
11.07.2016 23:54 18,4 C 79 % 1006,9 hPa 0,0 l/m 15,9 km/h (3 Bft) SW 235 0 min 0 W/m 14,7 C 15,1 C 24,1 km/h (4 Bft)
11.07.2016 23:57 18,4 C 79 % 1006,9 hPa 0,0 l/m 15,7 km/h (3 Bft) SW 226 0 min 0 W/m 14,7 C 15,1 C 27,4 km/h (5 Bft)
_ Min-Zeit 05:21 12:00 05:33 - 01:12 - - - - 12:36 08:12 01:12
Minimum _ 17,7 C 68 % 1003,7 hPa - 1,6 km/h (1 Bft) - - - - 13,8 C 13,0 C 3,2 km/h (1 Bft)
_ Max-Zeit 12:09 01:21 23:33 00:00 12:12 - - 11:03 12:18 00:00 00:00 16:03
Maximum _ 20,9 C 93 % 1006,9 hPa 0,0 l/m 25,5 km/h
SW (4 Bft)
- - 3 min 777 W/m 17,1 C 18,6 C 40,2 km/h
SW (6 Bft)
Durchschnitt _ 18,9 C 80 % 1005,3 hPa #0,0 l/m 15,3 km/h (3 Bft) SW - #1:33 h 160 W/m 15,3 C 16,1 C 24,2 km/h (4 Bft)
2016 Cux-Wetter.de -Die Nutzung der Wetterdaten nur mit ausdrcklicher Genehmigung